DAL45 EHAM-KLAX

Flight info

Callsign DAL45
Flight time N/A
Altitude 36000
Route BERGI L60 PENIL M144 BAGSO DCT DOGAL/M085F380 DCT 55N020W 56N030W 56N040W 54N050W DCT NEEKO/N0479F380 DCT EXPOS/N0488F400 DCT YSP DCT DLH DCT CHE DCT EKR DCT PROMT Q88 HAKMN ANJLL4
Aircraft A359/H-SDE2E3GHIJ3J4J5LM1ORWXY/LB1D1

Departure

Time 2026-04-28 19:31
Airport Amsterdam Airport Schiphol (EHAM)

Arrival

Time N/A
Airport Los Angeles International Airport (KLAX)
Time Latitude Longitude Altitude Speed Heading
2026-04-28 19:17 52.31572 4.76947 3 ft 8 kts 278°
2026-04-28 19:17 52.31567 4.76808 3 ft 15 kts 263°
2026-04-28 19:18 52.31559 4.76693 3 ft 9 kts 264°
2026-04-28 19:18 52.31554 4.76571 3 ft 12 kts 266°
2026-04-28 19:18 52.31548 4.76423 3 ft 13 kts 266°
2026-04-28 19:18 52.31543 4.76266 3 ft 14 kts 267°
2026-04-28 19:19 52.31538 4.76092 3 ft 17 kts 265°
2026-04-28 19:19 52.31529 4.75872 3 ft 22 kts 266°
2026-04-28 19:19 52.31519 4.75603 3 ft 26 kts 266°
2026-04-28 19:19 52.31508 4.75303 3 ft 28 kts 266°
2026-04-28 19:20 52.31499 4.74989 3 ft 28 kts 266°
2026-04-28 19:20 52.31485 4.74669 3 ft 29 kts 266°
2026-04-28 19:20 52.31480 4.74387 3 ft 19 kts 278°
2026-04-28 19:20 52.31549 4.74301 3 ft 12 kts 353°
2026-04-28 19:21 52.31627 4.74302 3 ft 12 kts
2026-04-28 19:21 52.31711 4.74310 3 ft 13 kts
2026-04-28 19:21 52.31802 4.74318 3 ft 14 kts
2026-04-28 19:21 52.31901 4.74328 3 ft 15 kts
2026-04-28 19:22 52.31994 4.74310 3 ft 9 kts 320°
2026-04-28 19:22 52.32016 4.74251 3 ft 9 kts 295°
2026-04-28 19:22 52.32036 4.74113 3 ft 10 kts 274°
2026-04-28 19:22 52.32040 4.73960 3 ft 18 kts 272°
2026-04-28 19:23 52.32045 4.73711 4 ft 26 kts 273°
2026-04-28 19:23 52.32083 4.73388 3 ft 31 kts 300°
2026-04-28 19:23 52.32249 4.73135 3 ft 35 kts 319°
2026-04-28 19:23 52.32448 4.72855 3 ft 40 kts 319°
2026-04-28 19:24 52.32659 4.72545 3 ft 40 kts 316°
2026-04-28 19:24 52.32794 4.72306 3 ft 13 kts 311°
2026-04-28 19:24 52.32856 4.72188 3 ft 14 kts 311°
2026-04-28 19:24 52.32925 4.72058 3 ft 16 kts 311°
2026-04-28 19:25 52.32989 4.71942 3 ft 7 kts 313°
2026-04-28 19:25 52.33024 4.71880 3 ft 8 kts 312°
2026-04-28 19:25 52.33063 4.71808 3 ft 9 kts 310°
2026-04-28 19:25 52.33107 4.71721 3 ft 11 kts 309°
2026-04-28 19:26 52.33140 4.71618 3 ft 10 kts 284°
2026-04-28 19:26 52.33128 4.71508 3 ft 10 kts 241°
2026-04-28 19:26 52.33083 4.71417 3 ft 11 kts 224°
2026-04-28 19:26 52.33024 4.71333 3 ft 12 kts 221°
2026-04-28 19:27 52.32958 4.71237 3 ft 14 kts 222°
2026-04-28 19:27 52.32933 4.71200 3 ft 0 kts 222°
2026-04-28 19:27 52.32932 4.71198 3 ft 2 kts 222°
2026-04-28 19:28 52.32895 4.71128 3 ft 8 kts 231°
2026-04-28 19:28 52.32871 4.71056 3 ft 0 kts 253°
2026-04-28 19:28 52.32869 4.71022 3 ft 9 kts 267°
2026-04-28 19:29 52.32901 4.70889 3 ft 8 kts 334°
2026-04-28 19:29 52.32943 4.70888 2 ft 0 kts
2026-04-28 19:30 52.32959 4.70891 3 ft 11 kts
2026-04-28 19:30 52.33261 4.70912 1 ft 76 kts
2026-04-28 19:30 52.33981 4.70985 4 ft 130 kts
2026-04-28 19:30 52.35039 4.71119 149 ft 165 kts
2026-04-28 19:31 52.36171 4.71232 827 ft 162 kts
2026-04-28 19:31 52.37299 4.71353 1371 ft 165 kts
2026-04-28 19:31 52.38484 4.71449 1677 ft 178 kts
2026-04-28 19:31 52.39792 4.71562 1869 ft 199 kts
2026-04-28 19:32 52.41262 4.71696 2053 ft 223 kts
2026-04-28 19:32 52.42880 4.71522 2341 ft 247 kts 348°
2026-04-28 19:32 52.44383 4.70013 2864 ft 261 kts 320°
2026-04-28 19:32 52.45682 4.67890 3516 ft 265 kts 316°
2026-04-28 19:33 52.46971 4.65697 4200 ft 267 kts 317°
2026-04-28 19:33 52.48267 4.63524 4952 ft 267 kts 317°
2026-04-28 19:33 52.49569 4.61353 5672 ft 266 kts 317°
2026-04-28 19:33 52.50879 4.59192 6137 ft 268 kts 317°
2026-04-28 19:34 52.52315 4.57216 6521 ft 271 kts 329°
2026-04-28 19:34 52.53912 4.55636 7131 ft 273 kts 333°
2026-04-28 19:34 52.55567 4.54096 7762 ft 274 kts 333°
2026-04-28 19:34 52.57239 4.52541 8362 ft 278 kts 332°
2026-04-28 19:35 52.58932 4.50958 8981 ft 281 kts 332°
2026-04-28 19:35 52.60644 4.49350 9626 ft 284 kts 332°
2026-04-28 19:35 52.62369 4.47728 10256 ft 287 kts 332°
2026-04-28 19:35 52.64129 4.46071 10662 ft 298 kts 332°
2026-04-28 19:36 52.65976 4.44329 10911 ft 313 kts 332°
2026-04-28 19:36 52.67906 4.42506 11175 ft 327 kts 332°
2026-04-28 19:36 52.69918 4.40604 11437 ft 340 kts 331°
2026-04-28 19:36 52.71987 4.38583 11693 ft 354 kts 328°
2026-04-28 19:37 52.73930 4.35947 11921 ft 367 kts 315°
2026-04-28 19:37 52.74990 4.33744 12174 ft 374 kts 304°
2026-04-28 19:37 52.76508 4.28545 12797 ft 380 kts 292°
2026-04-28 19:37 52.77409 4.24416 13287 ft 383 kts 290°
2026-04-28 19:38 52.78231 4.20203 13748 ft 386 kts 289°
2026-04-28 19:38 52.79027 4.15956 14218 ft 389 kts 288°
2026-04-28 19:38 52.79834 4.11664 14649 ft 392 kts 289°
2026-04-28 19:38 52.80657 4.07364 15087 ft 394 kts 289°
2026-04-28 19:39 52.81504 4.03026 15501 ft 397 kts 290°
2026-04-28 19:39 52.82369 3.98675 15901 ft 400 kts 290°
2026-04-28 19:39 52.83231 3.94349 16337 ft 403 kts 290°
2026-04-28 19:39 52.84112 3.89925 16751 ft 406 kts 290°
2026-04-28 19:40 52.84996 3.85478 17162 ft 409 kts 290°
2026-04-28 19:40 52.85886 3.80991 17547 ft 412 kts 290°
2026-04-28 19:40 52.86784 3.76461 17954 ft 415 kts 290°
2026-04-28 19:40 52.87683 3.71894 18366 ft 418 kts 290°
2026-04-28 19:41 52.88585 3.67314 18737 ft 421 kts 290°
2026-04-28 19:41 52.89495 3.62669 19039 ft 425 kts 290°
2026-04-28 19:41 52.90100 3.59573 19279 ft 426 kts 290°
2026-04-28 19:41 52.91013 3.54885 19629 ft 429 kts 290°
2026-04-28 19:42 52.91931 3.50162 19964 ft 431 kts 290°
2026-04-28 19:42 52.92851 3.45422 20301 ft 433 kts 289°
2026-04-28 19:42 52.93774 3.40653 20626 ft 436 kts 290°
2026-04-28 19:42 52.94701 3.35859 20974 ft 438 kts 289°
2026-04-28 19:43 52.95633 3.31027 21305 ft 440 kts 289°
2026-04-28 19:43 52.96564 3.26178 21624 ft 443 kts 289°
2026-04-28 19:43 52.97500 3.21300 21971 ft 444 kts 289°
2026-04-28 19:43 52.98440 3.16405 22294 ft 447 kts 289°
2026-04-28 19:44 52.99383 3.11479 22638 ft 449 kts 289°
2026-04-28 19:44 53.00324 3.06527 22949 ft 452 kts 289°
2026-04-28 19:44 53.01270 3.01534 23284 ft 454 kts 289°
2026-04-28 19:44 53.02217 2.96521 23635 ft 456 kts 289°
2026-04-28 19:45 53.03155 2.91543 23942 ft 458 kts 289°
2026-04-28 19:45 53.04107 2.86478 24191 ft 461 kts 289°
2026-04-28 19:45 53.05055 2.81429 24466 ft 463 kts 289°
2026-04-28 19:45 53.06023 2.76258 24750 ft 464 kts 289°
2026-04-28 19:46 53.06981 2.71123 25022 ft 466 kts 289°
2026-04-28 19:46 53.07947 2.65935 25263 ft 469 kts 289°
2026-04-28 19:46 53.08913 2.60736 25525 ft 471 kts 289°
2026-04-28 19:46 53.09879 2.55520 25821 ft 473 kts 289°
2026-04-28 19:47 53.10738 2.50209 26080 ft 477 kts 284°
2026-04-28 19:47 53.11320 2.44756 26318 ft 481 kts 281°
2026-04-28 19:47 53.11820 2.39304 26586 ft 483 kts 280°
2026-04-28 19:47 53.12286 2.33747 26872 ft 486 kts 280°
2026-04-28 19:48 53.12732 2.28164 27147 ft 488 kts 279°
2026-04-28 19:48 53.13173 2.22541 27376 ft 491 kts 279°
2026-04-28 19:48 53.13617 2.16890 27642 ft 494 kts 280°
2026-04-28 19:48 53.14065 2.11199 27934 ft 496 kts 280°
2026-04-28 19:49 53.14515 2.05492 28216 ft 498 kts 280°
2026-04-28 19:49 53.14969 1.99744 28454 ft 501 kts 280°
2026-04-28 19:49 53.15424 1.93960 28731 ft 504 kts 280°
2026-04-28 19:49 53.15878 1.88164 29021 ft 506 kts 280°
2026-04-28 19:50 53.16779 1.76524 29509 ft 512 kts 280°
2026-04-28 19:50 53.17232 1.70628 29786 ft 514 kts 280°
2026-04-28 19:50 53.17682 1.64709 30059 ft 517 kts 280°
2026-04-28 19:51 53.18133 1.58747 30320 ft 519 kts 280°
2026-04-28 19:51 53.18583 1.52754 30526 ft 522 kts 280°
2026-04-28 19:51 53.19033 1.46726 30767 ft 524 kts 280°
2026-04-28 19:51 53.19480 1.40676 31011 ft 526 kts 280°
2026-04-28 19:52 53.19925 1.34626 31259 ft 527 kts 280°
2026-04-28 19:52 53.20368 1.28549 31544 ft 527 kts 280°
2026-04-28 19:52 53.20807 1.22475 31879 ft 527 kts 280°
2026-04-28 19:52 53.21243 1.16413 32221 ft 526 kts 280°
2026-04-28 19:53 53.21674 1.10369 32539 ft 525 kts 280°
2026-04-28 19:53 53.22103 1.04304 32810 ft 526 kts 280°
2026-04-28 19:53 53.22529 0.98255 33118 ft 525 kts 280°
2026-04-28 19:53 53.22952 0.92200 33446 ft 524 kts 280°
2026-04-28 19:54 53.23366 0.86222 33765 ft 524 kts 280°
2026-04-28 19:54 53.23783 0.80176 34041 ft 524 kts 280°
2026-04-28 19:54 53.24196 0.74133 34334 ft 524 kts 280°
2026-04-28 19:54 53.24606 0.68078 34620 ft 523 kts 280°
2026-04-28 19:55 53.25012 0.62039 34915 ft 522 kts 280°
2026-04-28 19:55 53.25413 0.56014 35169 ft 522 kts 280°
2026-04-28 19:55 53.25812 0.49987 35426 ft 521 kts 279°
2026-04-28 19:55 53.26207 0.43978 35703 ft 520 kts 279°
2026-04-28 19:56 53.26599 0.37974 35973 ft 519 kts 279°
2026-04-28 19:56 53.26987 0.31974 36198 ft 520 kts 279°
2026-04-28 19:56 53.27373 0.25964 36372 ft 521 kts 279°
2026-04-28 19:57 53.28137 0.13936 36395 ft 524 kts 279°
2026-04-28 19:57 53.28900 0.01718 36399 ft 525 kts 279°
2026-04-28 19:58 53.30003 -0.10288 36401 ft 527 kts 284°
2026-04-28 19:58 53.31372 -0.22353 36397 ft 529 kts 284°
2026-04-28 19:59 53.32686 -0.34446 36394 ft 529 kts 284°
2026-04-28 19:59 53.33934 -0.46601 36395 ft 529 kts 283°
2026-04-28 20:00 53.35145 -0.58755 36400 ft 529 kts 283°
2026-04-28 20:00 53.36346 -0.70915 36404 ft 529 kts 283°
2026-04-28 20:01 53.37538 -0.83086 36407 ft 530 kts 283°
2026-04-28 20:01 53.38719 -0.95279 36413 ft 530 kts 283°
2026-04-28 20:02 53.39894 -1.07458 36412 ft 530 kts 283°
2026-04-28 20:02 53.41049 -1.19645 36417 ft 530 kts 283°
2026-04-28 20:03 53.42184 -1.31776 36421 ft 530 kts 283°
2026-04-28 20:03 53.43312 -1.44002 36421 ft 531 kts 283°
2026-04-28 20:04 53.44427 -1.56254 36432 ft 531 kts 283°
2026-04-28 20:04 53.45538 -1.68528 36422 ft 532 kts 283°
2026-04-28 20:05 53.46634 -1.80826 36428 ft 533 kts 282°
2026-04-28 20:05 53.47723 -1.93114 36422 ft 532 kts 282°
2026-04-28 20:06 53.48791 -2.05417 36422 ft 531 kts 282°
2026-04-28 20:06 53.49846 -2.17702 36423 ft 531 kts 282°
2026-04-28 20:07 53.50895 -2.29990 36424 ft 530 kts 282°
2026-04-28 20:07 53.51922 -2.42254 36424 ft 530 kts 282°
2026-04-28 20:08 53.52929 -2.54438 36423 ft 529 kts 282°
2026-04-28 20:08 53.53932 -2.66702 36408 ft 529 kts 282°
2026-04-28 20:09 53.54922 -2.78951 36411 ft 528 kts 282°
2026-04-28 20:09 53.55899 -2.91210 36427 ft 528 kts 282°
2026-04-28 20:10 53.56863 -3.03459 36426 ft 528 kts 281°
2026-04-28 20:10 53.57814 -3.15722 36425 ft 528 kts 281°
2026-04-28 20:11 53.58748 -3.27916 36424 ft 528 kts 281°
2026-04-28 20:11 53.59676 -3.40208 36423 ft 528 kts 281°
2026-04-28 20:12 53.60590 -3.52492 36421 ft 528 kts 281°
2026-04-28 20:12 53.61492 -3.64780 36426 ft 528 kts 281°
2026-04-28 20:13 53.62229 -3.77133 36427 ft 530 kts 277°
2026-04-28 20:13 53.62658 -3.89461 36426 ft 531 kts 277°
2026-04-28 20:14 53.63081 -4.01875 36422 ft 530 kts 277°
2026-04-28 20:14 53.63546 -4.14280 36420 ft 530 kts 277°
2026-04-28 20:15 53.64018 -4.26671 36422 ft 530 kts 277°
2026-04-28 20:15 53.64482 -4.39072 36426 ft 529 kts 277°
2026-04-28 20:16 53.64929 -4.51466 36417 ft 529 kts 277°
2026-04-28 20:16 53.65356 -4.63794 36425 ft 529 kts 277°
2026-04-28 20:17 53.65772 -4.76175 36421 ft 529 kts 277°
2026-04-28 20:17 53.66181 -4.88549 36422 ft 528 kts 276°
2026-04-28 20:18 53.66581 -5.00914 36429 ft 528 kts 276°
2026-04-28 20:18 53.66966 -5.13290 36426 ft 527 kts 276°
2026-04-28 20:19 53.67339 -5.25652 36429 ft 527 kts 276°
2026-04-28 20:19 53.67685 -5.37990 36429 ft 526 kts 276°
2026-04-28 20:20 53.68017 -5.50317 36431 ft 526 kts 276°
2026-04-28 20:20 53.68682 -5.62483 36432 ft 522 kts 281°
2026-04-28 20:21 53.69686 -5.74601 36432 ft 521 kts 281°
2026-04-28 20:21 53.70644 -5.86721 36425 ft 521 kts 281°
2026-04-28 20:22 53.71521 -5.98877 36430 ft 521 kts 280°
2026-04-28 20:22 53.72356 -6.11024 36428 ft 520 kts 279°
2026-04-28 20:23 53.73177 -6.23164 36427 ft 520 kts 279°
2026-04-28 20:23 53.73989 -6.35316 36432 ft 520 kts 279°
2026-04-28 20:24 53.74783 -6.47372 36445 ft 520 kts 279°
2026-04-28 20:24 53.75572 -6.59524 36436 ft 519 kts 279°
2026-04-28 20:25 53.76348 -6.71663 36428 ft 519 kts 279°
2026-04-28 20:25 53.77109 -6.83775 36438 ft 518 kts 279°
2026-04-28 20:26 53.77733 -6.93856 36436 ft 518 kts 279°
2026-04-28 20:26 53.78470 -7.05951 36436 ft 517 kts 278°
2026-04-28 20:27 53.79312 -7.20014 36429 ft 517 kts 278°
2026-04-28 20:27 53.79909 -7.30165 36429 ft 516 kts 278°
2026-04-28 20:28 53.80607 -7.42237 36429 ft 516 kts 278°
2026-04-28 20:28 53.81289 -7.54226 36428 ft 515 kts 278°
2026-04-28 20:29 53.81964 -7.66307 36426 ft 514 kts 278°
2026-04-28 20:29 53.82626 -7.78384 36422 ft 514 kts 277°
2026-04-28 20:30 53.83273 -7.90413 36421 ft 513 kts 277°
2026-04-28 20:30 53.83908 -8.02462 36420 ft 513 kts 277°
2026-04-28 20:31 53.84530 -8.14471 36422 ft 512 kts 277°
2026-04-28 20:31 53.85138 -8.26468 36418 ft 511 kts 277°
2026-04-28 20:32 53.85732 -8.38414 36415 ft 511 kts 277°
2026-04-28 20:32 53.86315 -8.50386 36411 ft 510 kts 276°
2026-04-28 20:33 53.86887 -8.62399 36411 ft 509 kts 276°
2026-04-28 20:33 53.87446 -8.74356 36412 ft 509 kts 276°
2026-04-28 20:34 53.87993 -8.86305 36408 ft 508 kts 276°
2026-04-28 20:34 53.88522 -8.98155 36409 ft 507 kts 276°
2026-04-28 20:35 53.89045 -9.10105 36410 ft 507 kts 276°
2026-04-28 20:35 53.89553 -9.22016 36407 ft 506 kts 276°
2026-04-28 20:36 53.90051 -9.33947 36407 ft 506 kts 275°
2026-04-28 20:36 53.90532 -9.45781 36409 ft 505 kts 275°
2026-04-28 20:37 53.91004 -9.57666 36407 ft 504 kts 275°
2026-04-28 20:37 53.91463 -9.69536 36404 ft 504 kts 275°
2026-04-28 20:38 53.91912 -9.81439 36405 ft 503 kts 275°
2026-04-28 20:38 53.92344 -9.93193 36402 ft 502 kts 275°
2026-04-28 20:39 53.92767 -10.05023 36400 ft 501 kts 274°
2026-04-28 20:39 53.93176 -10.16819 36401 ft 501 kts 274°
2026-04-28 20:40 53.93574 -10.28610 36401 ft 500 kts 274°
2026-04-28 20:40 53.93961 -10.40411 36401 ft 499 kts 274°
2026-04-28 20:41 53.94334 -10.52133 36403 ft 499 kts 274°
2026-04-28 20:41 53.94696 -10.63872 36400 ft 498 kts 274°
2026-04-28 20:42 53.95046 -10.75606 36401 ft 497 kts 274°
2026-04-28 20:42 53.95384 -10.87334 36398 ft 497 kts 273°
2026-04-28 20:43 53.95711 -10.99057 36401 ft 496 kts 273°
2026-04-28 20:43 53.96026 -11.10772 36403 ft 496 kts 273°
2026-04-28 20:44 53.96327 -11.22395 36411 ft 495 kts 273°
2026-04-28 20:44 53.96619 -11.34088 36407 ft 494 kts 272°
2026-04-28 20:45 53.96899 -11.45760 36407 ft 494 kts 272°
2026-04-28 20:45 53.97168 -11.57424 36408 ft 494 kts 272°
2026-04-28 20:46 53.97424 -11.69069 36412 ft 493 kts 272°
2026-04-28 20:46 53.97669 -11.80683 36411 ft 493 kts 272°
2026-04-28 20:47 53.97903 -11.92318 36406 ft 492 kts 272°
2026-04-28 20:47 53.98125 -12.03950 36404 ft 492 kts 271°
2026-04-28 20:48 53.98336 -12.15576 36407 ft 492 kts 271°
2026-04-28 20:48 53.98535 -12.27115 36414 ft 491 kts 271°
2026-04-28 20:49 53.98724 -12.38725 36405 ft 490 kts 271°
2026-04-28 20:49 53.98901 -12.50330 36404 ft 490 kts 271°
2026-04-28 20:50 53.99066 -12.61887 36408 ft 489 kts 271°
2026-04-28 20:50 53.99221 -12.73474 36409 ft 489 kts 271°
2026-04-28 20:51 53.99364 -12.85020 36409 ft 488 kts 270°
2026-04-28 20:51 53.99496 -12.96549 36408 ft 488 kts 270°
2026-04-28 20:52 53.99616 -13.08002 36406 ft 487 kts 270°
2026-04-28 20:52 53.99726 -13.19530 36403 ft 487 kts 270°
2026-04-28 20:53 53.99870 -13.36782 36403 ft 486 kts 270°
2026-04-28 20:53 53.99952 -13.48284 36402 ft 486 kts 270°
2026-04-28 20:54 54.00022 -13.59706 36404 ft 485 kts 270°
2026-04-28 20:54 54.00082 -13.71208 36404 ft 485 kts 269°
2026-04-28 20:55 54.00131 -13.82677 36404 ft 485 kts 269°
2026-04-28 20:55 54.00169 -13.94140 36404 ft 484 kts 269°
2026-04-28 20:56 54.00197 -14.05590 36401 ft 484 kts 269°
2026-04-28 20:56 54.00213 -14.17030 36400 ft 483 kts 269°
2026-04-28 20:57 54.00219 -14.28380 36400 ft 483 kts 269°
2026-04-28 20:57 54.00213 -14.39783 36402 ft 483 kts 269°
2026-04-28 20:58 54.00197 -14.51201 36401 ft 482 kts 269°
2026-04-28 20:58 54.00170 -14.62601 36402 ft 482 kts 269°
2026-04-28 20:59 54.00133 -14.74002 36401 ft 482 kts 269°
2026-04-28 20:59 54.00084 -14.85389 36396 ft 481 kts 269°
2026-04-28 21:00 54.00189 -14.96779 36398 ft 482 kts 275°
2026-04-28 21:00 54.01767 -15.07826 36398 ft 482 kts 288°
2026-04-28 21:01 54.04078 -15.18468 36398 ft 483 kts 290°
2026-04-28 21:01 54.06520 -15.29183 36402 ft 482 kts 290°
2026-04-28 21:02 54.08910 -15.39776 36399 ft 482 kts 290°
2026-04-28 21:02 54.11284 -15.50472 36395 ft 481 kts 290°
2026-04-28 21:03 54.13637 -15.61171 36395 ft 481 kts 289°
2026-04-28 21:03 54.15976 -15.71864 36393 ft 481 kts 289°
2026-04-28 21:04 54.18295 -15.82518 36393 ft 481 kts 289°
2026-04-28 21:04 54.20619 -15.93244 36391 ft 481 kts 289°
2026-04-28 21:05 54.22931 -16.03979 36391 ft 481 kts 289°
2026-04-28 21:05 54.25232 -16.14717 36389 ft 481 kts 289°
2026-04-28 21:06 54.27510 -16.25399 36390 ft 481 kts 289°
2026-04-28 21:06 54.29792 -16.36153 36385 ft 481 kts 289°
2026-04-28 21:07 54.31683 -16.45113 36381 ft 481 kts 288°
2026-04-28 21:07 54.34330 -16.57724 36383 ft 481 kts 288°
2026-04-28 21:08 54.36587 -16.68536 36380 ft 481 kts 288°
2026-04-28 21:08 54.38818 -16.79281 36377 ft 481 kts 288°
2026-04-28 21:09 54.41053 -16.90103 36373 ft 481 kts 288°
2026-04-28 21:09 54.43275 -17.00923 36372 ft 481 kts 288°
2026-04-28 21:10 54.45493 -17.11782 36370 ft 481 kts 288°
2026-04-28 21:10 54.47327 -17.20808 36369 ft 481 kts 288°
2026-04-28 21:11 54.49525 -17.31674 36366 ft 481 kts 287°
2026-04-28 21:11 54.51712 -17.42550 36365 ft 481 kts 287°
2026-04-28 21:12 54.53890 -17.53441 36359 ft 481 kts 287°
2026-04-28 21:12 54.56057 -17.64338 36360 ft 480 kts 287°
2026-04-28 21:13 54.58217 -17.75258 36355 ft 480 kts 287°
2026-04-28 21:13 54.60348 -17.86095 36352 ft 480 kts 287°
2026-04-28 21:14 54.62481 -17.97000 36352 ft 479 kts 286°
2026-04-28 21:14 54.64602 -18.07911 36348 ft 479 kts 286°
2026-04-28 21:15 54.66713 -18.18828 36345 ft 478 kts 286°
2026-04-28 21:15 54.68812 -18.29743 36336 ft 478 kts 285°
2026-04-28 21:16 54.70884 -18.40585 36324 ft 478 kts 285°
2026-04-28 21:16 54.72961 -18.51512 36335 ft 477 kts 285°
2026-04-28 21:17 54.75025 -18.62435 36326 ft 477 kts 285°
2026-04-28 21:17 54.77078 -18.73358 36339 ft 477 kts 285°
2026-04-28 21:18 54.79121 -18.84296 36326 ft 477 kts 284°
2026-04-28 21:18 54.81140 -18.95169 36325 ft 476 kts 284°
2026-04-28 21:19 54.83159 -19.06101 36321 ft 476 kts 284°
2026-04-28 21:19 54.85169 -19.17052 36320 ft 476 kts 284°
2026-04-28 21:20 54.87170 -19.28017 36316 ft 476 kts 283°
2026-04-28 21:20 54.89159 -19.38984 36313 ft 476 kts 283°
2026-04-28 21:21 54.91138 -19.49959 36308 ft 476 kts 283°
2026-04-28 21:21 54.93107 -19.60940 36308 ft 476 kts 283°
2026-04-28 21:22 54.95068 -19.71947 36302 ft 476 kts 283°
2026-04-28 21:22 54.97003 -19.82872 36302 ft 475 kts 282°
2026-04-28 21:23 54.98939 -19.93874 36296 ft 475 kts 282°
2026-04-28 21:23 55.00835 -20.04897 36293 ft 474 kts 280°
2026-04-28 21:24 55.02426 -20.16013 36290 ft 472 kts 278°
2026-04-28 21:24 55.03927 -20.27128 36284 ft 471 kts 278°
2026-04-28 21:25 55.05458 -20.38246 36278 ft 471 kts 278°
2026-04-28 21:25 55.06865 -20.48414 36302 ft 467 kts 276°
2026-04-28 21:26 55.08167 -20.59589 36269 ft 471 kts 279°
2026-04-28 21:26 55.09841 -20.70649 36267 ft 470 kts 279°
2026-04-28 21:27 55.11469 -20.81706 36265 ft 469 kts 278°
2026-04-28 21:27 55.13008 -20.92797 36256 ft 468 kts 277°
2026-04-28 21:28 55.14503 -21.03883 36256 ft 468 kts 277°
2026-04-28 21:28 55.15977 -21.14914 36251 ft 468 kts 277°
2026-04-28 21:29 55.17453 -21.26009 36247 ft 468 kts 277°
2026-04-28 21:29 55.18921 -21.37121 36241 ft 468 kts 277°
2026-04-28 21:30 55.20376 -21.48212 36236 ft 467 kts 276°
2026-04-28 21:30 55.21812 -21.59238 36228 ft 467 kts 276°
2026-04-28 21:31 55.23246 -21.70345 36225 ft 467 kts 276°
2026-04-28 21:31 55.24668 -21.81435 36222 ft 466 kts 276°
2026-04-28 21:32 55.26078 -21.92526 36214 ft 466 kts 276°
2026-04-28 21:32 55.27480 -22.03639 36211 ft 466 kts 276°
2026-04-28 21:33 55.28868 -22.14724 36209 ft 465 kts 275°
2026-04-28 21:33 55.30236 -22.25739 36200 ft 465 kts 275°
2026-04-28 21:34 55.31604 -22.36848 36200 ft 464 kts 275°
2026-04-28 21:34 55.32959 -22.47934 36196 ft 464 kts 275°
2026-04-28 21:35 55.34302 -22.59011 36186 ft 464 kts 275°
2026-04-28 21:35 55.35636 -22.70107 36179 ft 463 kts 274°
2026-04-28 21:36 55.36958 -22.81189 36174 ft 463 kts 274°
2026-04-28 21:36 55.38262 -22.92217 36173 ft 462 kts 274°
2026-04-28 21:37 55.39560 -23.03284 36172 ft 462 kts 274°
2026-04-28 21:37 55.40851 -23.14382 36166 ft 461 kts 274°
2026-04-28 21:38 55.42126 -23.25444 36161 ft 461 kts 274°
2026-04-28 21:38 55.43384 -23.36439 36156 ft 461 kts 273°
2026-04-28 21:39 55.44638 -23.47493 36151 ft 460 kts 273°
2026-04-28 21:39 55.45881 -23.58563 36148 ft 460 kts 273°
2026-04-28 21:40 55.47114 -23.69636 36143 ft 460 kts 272°
2026-04-28 21:40 55.48337 -23.80716 36140 ft 460 kts 272°
2026-04-28 21:41 55.49551 -23.91808 36135 ft 460 kts 272°
2026-04-28 21:41 55.50757 -24.02915 36132 ft 460 kts 272°
2026-04-28 21:42 55.51952 -24.14021 36119 ft 460 kts 272°
2026-04-28 21:42 55.53130 -24.25074 36121 ft 460 kts 272°
2026-04-28 21:43 55.54305 -24.36192 36121 ft 460 kts 272°
2026-04-28 21:43 55.55468 -24.47310 36121 ft 460 kts 271°
2026-04-28 21:44 55.56621 -24.58428 36123 ft 459 kts 271°
2026-04-28 21:44 55.57754 -24.69460 36115 ft 458 kts 271°
2026-04-28 21:45 55.58883 -24.80549 36118 ft 458 kts 271°
2026-04-28 21:45 55.60000 -24.91633 36111 ft 457 kts 271°
2026-04-28 21:46 55.61104 -25.02689 36110 ft 456 kts 271°
2026-04-28 21:46 55.62160 -25.13370 36106 ft 456 kts 271°
2026-04-28 21:47 55.63243 -25.24424 36108 ft 456 kts 271°
2026-04-28 21:47 55.64316 -25.35487 36109 ft 455 kts 270°
2026-04-28 21:48 55.65378 -25.46544 36107 ft 455 kts 270°
2026-04-28 21:48 55.66430 -25.57602 36112 ft 455 kts 270°
2026-04-28 21:49 55.67471 -25.68654 36114 ft 455 kts 270°
2026-04-28 21:49 55.68497 -25.79660 36114 ft 454 kts 270°
2026-04-28 21:50 55.69516 -25.90720 36115 ft 455 kts 270°
2026-04-28 21:50 55.70530 -26.01821 36119 ft 456 kts 270°
2026-04-28 21:51 55.71530 -26.12886 36118 ft 457 kts 269°
2026-04-28 21:51 55.72526 -26.24022 36119 ft 457 kts 269°
2026-04-28 21:52 55.73512 -26.35171 36127 ft 458 kts 269°
2026-04-28 21:52 55.74492 -26.46359 36126 ft 459 kts 269°
2026-04-28 21:53 55.75462 -26.57561 36129 ft 459 kts 269°
2026-04-28 21:53 55.76422 -26.68776 36127 ft 459 kts 269°
2026-04-28 21:54 55.77368 -26.79934 36131 ft 459 kts 269°
2026-04-28 21:54 55.78309 -26.91169 36128 ft 459 kts 269°
2026-04-28 21:55 55.79239 -27.02408 36130 ft 459 kts 269°
2026-04-28 21:55 55.80126 -27.13239 36140 ft 459 kts 269°
2026-04-28 21:56 55.81036 -27.24468 36144 ft 458 kts 269°
2026-04-28 21:56 55.81933 -27.35696 36144 ft 458 kts 269°
2026-04-28 21:57 55.82818 -27.46925 36144 ft 458 kts 269°
2026-04-28 21:57 55.83693 -27.58172 36145 ft 458 kts 269°
2026-04-28 21:58 55.84554 -27.69337 36149 ft 459 kts 269°
2026-04-28 21:58 55.85413 -27.80601 36152 ft 459 kts 269°
2026-04-28 21:59 55.86261 -27.91861 36153 ft 459 kts 269°
2026-04-28 22:00 55.87376 -28.06895 36154 ft 460 kts 269°
2026-04-28 22:00 55.88201 -28.18192 36154 ft 460 kts 269°
2026-04-28 22:01 55.89017 -28.29509 36153 ft 460 kts 269°
2026-04-28 22:01 55.89821 -28.40818 36157 ft 460 kts 269°
2026-04-28 22:02 55.90610 -28.52070 36154 ft 461 kts 269°
2026-04-28 22:02 55.91396 -28.63416 36161 ft 461 kts 269°
2026-04-28 22:03 55.92170 -28.74762 36161 ft 461 kts 269°
2026-04-28 22:03 55.92936 -28.86129 36160 ft 461 kts 269°
2026-04-28 22:04 55.93690 -28.97492 36156 ft 461 kts 269°
2026-04-28 22:04 55.94431 -29.08809 36161 ft 462 kts 269°
2026-04-28 22:05 55.95164 -29.20184 36171 ft 462 kts 269°
2026-04-28 22:05 55.95889 -29.31587 36172 ft 463 kts 269°
2026-04-28 22:06 55.96604 -29.43011 36165 ft 463 kts 269°
2026-04-28 22:06 55.97310 -29.54456 36170 ft 463 kts 269°
2026-04-28 22:07 55.98005 -29.65912 36166 ft 464 kts 269°
2026-04-28 22:07 55.98690 -29.77370 36167 ft 464 kts 269°
2026-04-28 22:08 55.99366 -29.88856 36169 ft 464 kts 269°
2026-04-28 22:08 56.00031 -30.00346 36170 ft 465 kts 269°
2026-04-28 22:09 56.00565 -30.11768 36170 ft 463 kts 268°
2026-04-28 22:09 56.00970 -30.23264 36168 ft 463 kts 267°
2026-04-28 22:10 56.01376 -30.34778 36174 ft 464 kts 268°
2026-04-28 22:10 56.01797 -30.46295 36171 ft 464 kts 268°
2026-04-28 22:11 56.02217 -30.57826 36163 ft 464 kts 268°
2026-04-28 22:11 56.02626 -30.69345 36166 ft 464 kts 268°
2026-04-28 22:12 56.03023 -30.80862 36169 ft 464 kts 268°
2026-04-28 22:12 56.03409 -30.92382 36170 ft 464 kts 268°
2026-04-28 22:13 56.03783 -31.03899 36169 ft 464 kts 268°
2026-04-28 22:13 56.04145 -31.15339 36171 ft 464 kts 268°
2026-04-28 22:14 56.04499 -31.26862 36175 ft 464 kts 267°
2026-04-28 22:14 56.04842 -31.38390 36174 ft 464 kts 267°
2026-04-28 22:15 56.05173 -31.49904 36175 ft 463 kts 267°
2026-04-28 22:15 56.05494 -31.61422 36171 ft 463 kts 267°
2026-04-28 22:16 56.05805 -31.72951 36172 ft 463 kts 267°
2026-04-28 22:16 56.06102 -31.84400 36172 ft 463 kts 267°
2026-04-28 22:17 56.06391 -31.95916 36174 ft 463 kts 267°
2026-04-28 22:17 56.06669 -32.07439 36172 ft 463 kts 267°
2026-04-28 22:18 56.06937 -32.18985 36173 ft 464 kts 267°
2026-04-28 22:18 56.07194 -32.30524 36174 ft 464 kts 267°
2026-04-28 22:19 56.07440 -32.42067 36174 ft 464 kts 267°
2026-04-28 22:19 56.07675 -32.53621 36174 ft 465 kts 267°
2026-04-28 22:20 56.07901 -32.65188 36173 ft 465 kts 267°
2026-04-28 22:20 56.08115 -32.76772 36174 ft 465 kts 267°
2026-04-28 22:21 56.08318 -32.88352 36174 ft 465 kts 267°
2026-04-28 22:21 56.08510 -32.99948 36173 ft 466 kts 267°
2026-04-28 22:22 56.08691 -33.11485 36174 ft 466 kts 267°
2026-04-28 22:22 56.08862 -33.23085 36177 ft 467 kts 267°
2026-04-28 22:23 56.09023 -33.34712 36178 ft 467 kts 267°
2026-04-28 22:23 56.09173 -33.46349 36177 ft 467 kts 267°
2026-04-28 22:24 56.09313 -33.58007 36176 ft 468 kts 267°
2026-04-28 22:24 56.09442 -33.69665 36177 ft 468 kts 267°
2026-04-28 22:25 56.09559 -33.81258 36176 ft 468 kts 267°
2026-04-28 22:25 56.09665 -33.92904 36166 ft 468 kts 267°
2026-04-28 22:26 56.09760 -34.04565 36183 ft 468 kts 267°
2026-04-28 22:26 56.09845 -34.16223 36171 ft 468 kts 267°
2026-04-28 22:27 56.09918 -34.27878 36171 ft 468 kts 267°
2026-04-28 22:27 56.09980 -34.39531 36184 ft 468 kts 267°
2026-04-28 22:28 56.10032 -34.51194 36173 ft 468 kts 267°
2026-04-28 22:28 56.10072 -34.62849 36174 ft 468 kts 267°
2026-04-28 22:29 56.10101 -34.74521 36173 ft 468 kts 267°
2026-04-28 22:29 56.10120 -34.86116 36186 ft 468 kts 267°
2026-04-28 22:30 56.10127 -34.97788 36179 ft 468 kts 267°
2026-04-28 22:30 56.10124 -35.09449 36179 ft 468 kts 267°
2026-04-28 22:31 56.10109 -35.21126 36181 ft 468 kts 267°
2026-04-28 22:31 56.10084 -35.32786 36179 ft 468 kts 267°
2026-04-28 22:32 56.10047 -35.44459 36179 ft 468 kts 267°
2026-04-28 22:32 56.10000 -35.56128 36176 ft 468 kts 267°
2026-04-28 22:33 56.09942 -35.67721 36182 ft 468 kts 267°
2026-04-28 22:33 56.09872 -35.79390 36182 ft 468 kts 267°
2026-04-28 22:34 56.09792 -35.91033 36183 ft 468 kts 266°
2026-04-28 22:34 56.09701 -36.02702 36185 ft 468 kts 266°
2026-04-28 22:35 56.09599 -36.14353 36184 ft 468 kts 266°
2026-04-28 22:35 56.09485 -36.26025 36188 ft 468 kts 266°
2026-04-28 22:36 56.09361 -36.37687 36186 ft 468 kts 266°
2026-04-28 22:36 56.09226 -36.49280 36188 ft 468 kts 266°
2026-04-28 22:37 56.09080 -36.60931 36190 ft 468 kts 266°
2026-04-28 22:37 56.08923 -36.72576 36193 ft 468 kts 266°
2026-04-28 22:38 56.08755 -36.84221 36189 ft 468 kts 266°
2026-04-28 22:38 56.08576 -36.95871 36193 ft 468 kts 266°
2026-04-28 22:39 56.08386 -37.07511 36191 ft 467 kts 266°
2026-04-28 22:39 56.08185 -37.19157 36194 ft 467 kts 266°
2026-04-28 22:40 56.07974 -37.30789 36189 ft 467 kts 266°
2026-04-28 22:40 56.07751 -37.42414 36189 ft 467 kts 266°
2026-04-28 22:41 56.07519 -37.53971 36214 ft 467 kts 266°
2026-04-28 22:41 56.07274 -37.65628 36199 ft 470 kts 266°
2026-04-28 22:42 56.07017 -37.77336 36197 ft 470 kts 266°
2026-04-28 22:42 56.06749 -37.89040 36193 ft 470 kts 266°
2026-04-28 22:43 56.06470 -38.00726 36194 ft 470 kts 266°
2026-04-28 22:43 56.06180 -38.12418 36201 ft 470 kts 266°
2026-04-28 22:44 56.05930 -38.22164 36200 ft 470 kts 266°
2026-04-28 22:44 56.05619 -38.33859 36202 ft 470 kts 266°
2026-04-28 22:45 56.05245 -38.47443 36202 ft 470 kts 266°
2026-04-28 22:45 56.04911 -38.59117 36201 ft 470 kts 266°
2026-04-28 22:46 56.04622 -38.68914 36199 ft 470 kts 266°
2026-04-28 22:46 56.04268 -38.80590 36202 ft 470 kts 266°
2026-04-28 22:47 56.03904 -38.92209 36203 ft 470 kts 266°
2026-04-28 22:47 56.03528 -39.03884 36201 ft 470 kts 266°
2026-04-28 22:48 56.03140 -39.15555 36204 ft 470 kts 266°
2026-04-28 22:48 56.02741 -39.27241 36203 ft 470 kts 266°
2026-04-28 22:49 56.02332 -39.38899 36206 ft 470 kts 266°
2026-04-28 22:49 56.01911 -39.50577 36208 ft 470 kts 266°
2026-04-28 22:50 56.01480 -39.62238 36207 ft 470 kts 266°
2026-04-28 22:50 56.01040 -39.73835 36211 ft 470 kts 266°
2026-04-28 22:51 56.00586 -39.85493 36210 ft 470 kts 266°
2026-04-28 22:51 56.00087 -39.97154 36213 ft 470 kts 263°
2026-04-28 22:52 55.98726 -40.08578 36215 ft 470 kts 256°
2026-04-28 22:52 55.97035 -40.19873 36215 ft 471 kts 256°
2026-04-28 22:53 55.95285 -40.31136 36219 ft 471 kts 256°
2026-04-28 22:53 55.93533 -40.42403 36219 ft 470 kts 256°
2026-04-28 22:54 55.91795 -40.53587 36221 ft 470 kts 256°
2026-04-28 22:54 55.90042 -40.64818 36223 ft 470 kts 256°
2026-04-28 22:55 55.88277 -40.76051 36226 ft 470 kts 256°
2026-04-28 22:55 55.86504 -40.87254 36227 ft 470 kts 256°
2026-04-28 22:56 55.84721 -40.98442 36232 ft 470 kts 256°
2026-04-28 22:56 55.82929 -41.09617 36228 ft 469 kts 256°
2026-04-28 22:57 55.81138 -41.20713 36231 ft 469 kts 256°
2026-04-28 22:57 55.79327 -41.31861 36234 ft 469 kts 256°
2026-04-28 22:58 55.77508 -41.42984 36239 ft 469 kts 256°
2026-04-28 22:58 55.75677 -41.54108 36241 ft 469 kts 256°
2026-04-28 22:59 55.73839 -41.65206 36240 ft 469 kts 256°
2026-04-28 22:59 55.71990 -41.76296 36238 ft 468 kts 256°
2026-04-28 23:00 55.70132 -41.87368 36235 ft 468 kts 256°
2026-04-28 23:00 55.68265 -41.98427 36241 ft 468 kts 256°
2026-04-28 23:01 55.66398 -42.09418 36249 ft 468 kts 256°
2026-04-28 23:01 55.64508 -42.20477 36245 ft 468 kts 256°
2026-04-28 23:02 55.62610 -42.31510 36245 ft 468 kts 256°
2026-04-28 23:02 55.60717 -42.42448 36254 ft 468 kts 256°
2026-04-28 23:03 55.58801 -42.53451 36256 ft 468 kts 256°
2026-04-28 23:03 55.56877 -42.64431 36259 ft 467 kts 256°
2026-04-28 23:04 55.54945 -42.75397 36255 ft 467 kts 256°
2026-04-28 23:04 55.52028 -42.91817 36252 ft 467 kts 256°
2026-04-28 23:05 55.50085 -43.02680 36250 ft 467 kts 256°
2026-04-28 23:05 55.48119 -43.13601 36253 ft 467 kts 256°
2026-04-28 23:06 55.46143 -43.24517 36254 ft 467 kts 256°
2026-04-28 23:06 55.44158 -43.35417 36255 ft 467 kts 256°
2026-04-28 23:07 55.42164 -43.46299 36259 ft 466 kts 256°
2026-04-28 23:07 55.40160 -43.57174 36261 ft 466 kts 256°
2026-04-28 23:08 55.38163 -43.67949 36260 ft 466 kts 256°
2026-04-28 23:08 55.36142 -43.78786 36260 ft 466 kts 256°
2026-04-28 23:09 55.34112 -43.89612 36264 ft 466 kts 256°
2026-04-28 23:09 55.32077 -44.00409 36259 ft 466 kts 256°
2026-04-28 23:10 55.30030 -44.11199 36262 ft 466 kts 256°
2026-04-28 23:10 55.27977 -44.21967 36256 ft 465 kts 256°
2026-04-28 23:11 55.25911 -44.32738 36256 ft 465 kts 256°
2026-04-28 23:11 55.23838 -44.43487 36259 ft 465 kts 256°
2026-04-28 23:12 55.21770 -44.54147 36267 ft 465 kts 256°
2026-04-28 23:12 55.19679 -44.64869 36262 ft 465 kts 256°
2026-04-28 23:13 55.17580 -44.75567 36261 ft 465 kts 256°
2026-04-28 23:13 55.15474 -44.86252 36266 ft 465 kts 256°
2026-04-28 23:14 55.13356 -44.96935 36262 ft 465 kts 256°
2026-04-28 23:14 55.11228 -45.07608 36264 ft 464 kts 256°
2026-04-28 23:15 55.09096 -45.18251 36260 ft 464 kts 256°
2026-04-28 23:15 55.06956 -45.28870 36262 ft 464 kts 256°
2026-04-28 23:16 55.04805 -45.39484 36265 ft 464 kts 256°
2026-04-28 23:16 55.02659 -45.50017 36263 ft 464 kts 256°
2026-04-28 23:17 55.00490 -45.60598 36262 ft 464 kts 256°
2026-04-28 23:17 54.98312 -45.71170 36258 ft 463 kts 256°
2026-04-28 23:18 54.96126 -45.81726 36259 ft 463 kts 256°
2026-04-28 23:18 54.93932 -45.92274 36261 ft 463 kts 256°
2026-04-28 23:19 54.91731 -46.02800 36259 ft 463 kts 256°
2026-04-28 23:19 54.89520 -46.13316 36258 ft 463 kts 256°
2026-04-28 23:20 54.87300 -46.23821 36259 ft 463 kts 256°
2026-04-28 23:20 54.85073 -46.34306 36256 ft 463 kts 256°
2026-04-28 23:21 54.82838 -46.44771 36262 ft 463 kts 256°
2026-04-28 23:21 54.80595 -46.55220 36258 ft 463 kts 257°
2026-04-28 23:22 54.78721 -46.63907 36258 ft 463 kts 256°
2026-04-28 23:22 54.76079 -46.76100 36251 ft 463 kts 256°
2026-04-28 23:23 54.73805 -46.86536 36252 ft 463 kts 256°
2026-04-28 23:23 54.71536 -46.96895 36249 ft 463 kts 256°
2026-04-28 23:24 54.69245 -47.07303 36249 ft 463 kts 256°
2026-04-28 23:24 54.66942 -47.17712 36246 ft 463 kts 256°
2026-04-28 23:25 54.64632 -47.28099 36244 ft 463 kts 256°
2026-04-28 23:25 54.62314 -47.38473 36246 ft 463 kts 256°
2026-04-28 23:26 54.59984 -47.48850 36250 ft 464 kts 256°
2026-04-28 23:26 54.57646 -47.59210 36243 ft 464 kts 256°
2026-04-28 23:27 54.55296 -47.69573 36246 ft 464 kts 256°
2026-04-28 23:27 54.52955 -47.79849 36242 ft 464 kts 256°
2026-04-28 23:28 54.50587 -47.90190 36244 ft 464 kts 256°
2026-04-28 23:28 54.48210 -48.00515 36239 ft 464 kts 256°
2026-04-28 23:29 54.45822 -48.10842 36242 ft 464 kts 256°
2026-04-28 23:29 54.43429 -48.21142 36238 ft 464 kts 256°
2026-04-28 23:30 54.41025 -48.31439 36242 ft 464 kts 255°
2026-04-28 23:30 54.39022 -48.39979 36239 ft 464 kts 255°
2026-04-28 23:31 54.36601 -48.50256 36237 ft 465 kts 255°
2026-04-28 23:31 54.33774 -48.62199 36243 ft 465 kts 255°
2026-04-28 23:32 54.31730 -48.70787 36239 ft 465 kts 255°
2026-04-28 23:32 54.29283 -48.81030 36235 ft 465 kts 255°
2026-04-28 23:33 54.26839 -48.91208 36236 ft 465 kts 255°
2026-04-28 23:33 54.24373 -49.01436 36233 ft 465 kts 255°
2026-04-28 23:34 54.21893 -49.11668 36231 ft 465 kts 255°
2026-04-28 23:34 54.19408 -49.21874 36233 ft 466 kts 255°
2026-04-28 23:35 54.16911 -49.32083 36234 ft 466 kts 254°
2026-04-28 23:35 54.14420 -49.42220 36231 ft 466 kts 254°
2026-04-28 23:36 54.11902 -49.52417 36230 ft 466 kts 254°
2026-04-28 23:36 54.09376 -49.62602 36230 ft 466 kts 254°
2026-04-28 23:37 54.06841 -49.72775 36234 ft 467 kts 254°
2026-04-28 23:37 54.04296 -49.82942 36234 ft 467 kts 254°
2026-04-28 23:38 54.01742 -49.93098 36232 ft 467 kts 254°
2026-04-28 23:38 53.99185 -50.03245 36233 ft 467 kts 254°
2026-04-28 23:39 53.96714 -50.13434 36234 ft 466 kts 255°
2026-04-28 23:39 53.94269 -50.23640 36233 ft 466 kts 255°
2026-04-28 23:40 53.91819 -50.33760 36232 ft 466 kts 254°
2026-04-28 23:40 53.89336 -50.43918 36229 ft 466 kts 254°
2026-04-28 23:41 53.86838 -50.54078 36233 ft 466 kts 254°
2026-04-28 23:41 53.84328 -50.64237 36232 ft 466 kts 254°
2026-04-28 23:42 53.81831 -50.74297 36233 ft 467 kts 254°
2026-04-28 23:42 53.79307 -50.84416 36235 ft 467 kts 254°
2026-04-28 23:43 53.76773 -50.94533 36238 ft 467 kts 253°
2026-04-28 23:43 53.74232 -51.04632 36243 ft 467 kts 253°
2026-04-28 23:44 53.71680 -51.14728 36231 ft 467 kts 253°
2026-04-28 23:44 53.69118 -51.24822 36233 ft 467 kts 253°
2026-04-28 23:45 53.66566 -51.34829 36243 ft 467 kts 253°
2026-04-28 23:45 53.63989 -51.44888 36244 ft 467 kts 253°
2026-04-28 23:46 53.61406 -51.54927 36239 ft 467 kts 253°
2026-04-28 23:46 53.58814 -51.64954 36240 ft 467 kts 253°
2026-04-28 23:47 53.56213 -51.74974 36243 ft 467 kts 253°
2026-04-28 23:47 53.53604 -51.84977 36249 ft 467 kts 252°
2026-04-28 23:48 53.50988 -51.94964 36249 ft 467 kts 252°
2026-04-28 23:48 53.48383 -52.04865 36249 ft 467 kts 252°
2026-04-28 23:49 53.45750 -52.14831 36249 ft 467 kts 252°
2026-04-28 23:49 53.43106 -52.24792 36250 ft 466 kts 252°
2026-04-28 23:50 53.40458 -52.34726 36252 ft 466 kts 252°
2026-04-28 23:50 53.37800 -52.44653 36251 ft 466 kts 252°
2026-04-28 23:51 53.35156 -52.54486 36254 ft 466 kts 252°
2026-04-28 23:51 53.32489 -52.64360 36261 ft 466 kts 252°
2026-04-28 23:52 53.29812 -52.74233 36262 ft 466 kts 252°
2026-04-28 23:52 53.27126 -52.84093 36259 ft 466 kts 251°
2026-04-28 23:53 53.24435 -52.93931 36261 ft 466 kts 251°
2026-04-28 23:53 53.21731 -53.03773 36259 ft 466 kts 251°
2026-04-28 23:54 53.19037 -53.13537 36261 ft 466 kts 251°
2026-04-28 23:54 53.16320 -53.23346 36260 ft 465 kts 251°
2026-04-28 23:55 53.13598 -53.33129 36265 ft 465 kts 251°
2026-04-28 23:55 53.10867 -53.42904 36265 ft 465 kts 251°
2026-04-28 23:56 53.08130 -53.52657 36262 ft 465 kts 251°
2026-04-28 23:56 53.05382 -53.62412 36264 ft 465 kts 251°
2026-04-28 23:57 53.02627 -53.72147 36266 ft 465 kts 251°
2026-04-28 23:57 52.99881 -53.81814 36265 ft 465 kts 250°
2026-04-28 23:58 52.97113 -53.91517 36271 ft 465 kts 250°
2026-04-28 23:58 52.94339 -54.01201 36271 ft 465 kts 250°
2026-04-28 23:59 52.91549 -54.10900 36270 ft 465 kts 250°
2026-04-28 23:59 52.88774 -54.20506 36271 ft 465 kts 250°
2026-04-29 00:00 52.85974 -54.30161 36272 ft 465 kts 250°
2026-04-29 00:00 52.83166 -54.39803 36272 ft 465 kts 250°
2026-04-29 00:01 52.80351 -54.49432 36273 ft 465 kts 250°
2026-04-29 00:01 52.77527 -54.59052 36270 ft 465 kts 250°
2026-04-29 00:02 52.74693 -54.68667 36276 ft 465 kts 250°
2026-04-29 00:02 52.71849 -54.78275 36275 ft 465 kts 250°
2026-04-29 00:03 52.69019 -54.87801 36271 ft 465 kts 250°
2026-04-29 00:03 52.66159 -54.97386 36273 ft 466 kts 249°
2026-04-29 00:04 52.63294 -55.06952 36272 ft 466 kts 249°
2026-04-29 00:04 52.60420 -55.16507 36273 ft 466 kts 249°
2026-04-29 00:05 52.57539 -55.26049 36274 ft 466 kts 249°
2026-04-29 00:05 52.54642 -55.35609 36263 ft 466 kts 249°
2026-04-29 00:06 52.51739 -55.45147 36258 ft 467 kts 249°
2026-04-29 00:06 52.48848 -55.54606 36255 ft 467 kts 249°
2026-04-29 00:07 52.45927 -55.64130 36267 ft 467 kts 249°
2026-04-29 00:07 52.43000 -55.73635 36265 ft 467 kts 249°
2026-04-29 00:08 52.40689 -55.83449 36264 ft 457 kts 262°
2026-04-29 00:08 52.40073 -55.93639 36264 ft 448 kts 274°
2026-04-29 00:09 52.40141 -56.03832 36267 ft 447 kts 275°
2026-04-29 00:09 52.40288 -56.13994 36263 ft 446 kts 275°
2026-04-29 00:10 52.40404 -56.24161 36266 ft 446 kts 275°
2026-04-29 00:10 52.40488 -56.34342 36266 ft 447 kts 275°
2026-04-29 00:11 52.40556 -56.44505 36266 ft 446 kts 275°
2026-04-29 00:12 52.40641 -56.59696 36268 ft 446 kts 274°
2026-04-29 00:12 52.40688 -56.69869 36271 ft 446 kts 274°
2026-04-29 00:13 52.40727 -56.80037 36267 ft 446 kts 274°
2026-04-29 00:13 52.40757 -56.90203 36270 ft 446 kts 274°
2026-04-29 00:14 52.40778 -57.00380 36272 ft 447 kts 274°
2026-04-29 00:14 52.40790 -57.10564 36273 ft 447 kts 274°
2026-04-29 00:15 52.40794 -57.20738 36271 ft 447 kts 274°
2026-04-29 00:15 52.40788 -57.30923 36267 ft 447 kts 274°
2026-04-29 00:16 52.40775 -57.41046 36270 ft 447 kts 274°
2026-04-29 00:16 52.40752 -57.51244 36270 ft 447 kts 273°
2026-04-29 00:17 52.40720 -57.61432 36270 ft 447 kts 273°
2026-04-29 00:17 52.40680 -57.71622 36264 ft 448 kts 273°
2026-04-29 00:18 52.40631 -57.81839 36264 ft 448 kts 273°
2026-04-29 00:18 52.40574 -57.92024 36258 ft 448 kts 273°
2026-04-29 00:19 52.40520 -58.00503 36256 ft 448 kts 273°
2026-04-29 00:19 52.40433 -58.12364 36255 ft 448 kts 273°
2026-04-29 00:20 52.40363 -58.20925 36250 ft 448 kts 273°
2026-04-29 00:20 52.40273 -58.31078 36246 ft 449 kts 273°
2026-04-29 00:21 52.40172 -58.41296 36248 ft 449 kts 272°
2026-04-29 00:21 52.40063 -58.51536 36243 ft 449 kts 272°
2026-04-29 00:22 52.39945 -58.61768 36240 ft 449 kts 272°
2026-04-29 00:22 52.39818 -58.72012 36238 ft 450 kts 272°
2026-04-29 00:23 52.39683 -58.82246 36232 ft 450 kts 272°
2026-04-29 00:23 52.39538 -58.92512 36234 ft 451 kts 272°
2026-04-29 00:24 52.39385 -59.02710 36230 ft 451 kts 272°
2026-04-29 00:24 52.39222 -59.12993 36236 ft 452 kts 272°
2026-04-29 00:25 52.39050 -59.23275 36230 ft 452 kts 272°
2026-04-29 00:25 52.38869 -59.33576 36220 ft 453 kts 272°
2026-04-29 00:26 52.38678 -59.43886 36219 ft 453 kts 271°
2026-04-29 00:26 52.38478 -59.54198 36216 ft 453 kts 271°
2026-04-29 00:27 52.38270 -59.64520 36223 ft 454 kts 271°
2026-04-29 00:27 52.38052 -59.74846 36220 ft 454 kts 271°
2026-04-29 00:28 52.37831 -59.84907 36215 ft 454 kts 271°
2026-04-29 00:28 52.37596 -59.95254 36211 ft 454 kts 271°
2026-04-29 00:29 52.37353 -60.05522 36212 ft 454 kts 271°
2026-04-29 00:29 52.37099 -60.15850 36207 ft 454 kts 271°
2026-04-29 00:30 52.36836 -60.26187 36206 ft 454 kts 271°
2026-04-29 00:30 52.36564 -60.36526 36194 ft 454 kts 270°
2026-04-29 00:31 52.36283 -60.46865 36203 ft 454 kts 270°
2026-04-29 00:31 52.35995 -60.57141 36201 ft 454 kts 270°
2026-04-29 00:32 52.35696 -60.67470 36193 ft 455 kts 270°
2026-04-29 00:32 52.35388 -60.77805 36202 ft 455 kts 270°
2026-04-29 00:33 52.35071 -60.88145 36192 ft 455 kts 270°
2026-04-29 00:33 52.34745 -60.98479 36193 ft 455 kts 270°
2026-04-29 00:34 52.34410 -61.08816 36198 ft 455 kts 270°
2026-04-29 00:34 52.34065 -61.19158 36197 ft 455 kts 269°
2026-04-29 00:35 52.33711 -61.29526 36198 ft 456 kts 269°
2026-04-29 00:35 52.33348 -61.39865 36198 ft 456 kts 269°
2026-04-29 00:36 52.32979 -61.50154 36198 ft 456 kts 269°
2026-04-29 00:36 52.32597 -61.60504 36200 ft 456 kts 269°
2026-04-29 00:37 52.32207 -61.70862 36198 ft 456 kts 269°
2026-04-29 00:37 52.31806 -61.81236 36201 ft 456 kts 269°
2026-04-29 00:38 52.31401 -61.91527 36197 ft 457 kts 269°
2026-04-29 00:38 52.30983 -62.01876 36200 ft 457 kts 268°
2026-04-29 00:39 52.30555 -62.12241 36200 ft 457 kts 268°
2026-04-29 00:39 52.30119 -62.22594 36196 ft 457 kts 268°
2026-04-29 00:40 52.29674 -62.32946 36196 ft 457 kts 268°
2026-04-29 00:40 52.29220 -62.43293 36197 ft 457 kts 268°
2026-04-29 00:41 52.28757 -62.53629 36198 ft 456 kts 268°
2026-04-29 00:41 52.28285 -62.63979 36202 ft 456 kts 268°
2026-04-29 00:42 52.27804 -62.74320 36197 ft 456 kts 268°
2026-04-29 00:42 52.27314 -62.84655 36200 ft 456 kts 267°
2026-04-29 00:43 52.26815 -62.94989 36202 ft 456 kts 267°
2026-04-29 00:43 52.26310 -63.05257 36202 ft 456 kts 267°
2026-04-29 00:44 52.25793 -63.15572 36203 ft 456 kts 267°
2026-04-29 00:44 52.25268 -63.25894 36201 ft 456 kts 267°
2026-04-29 00:45 52.24733 -63.36207 36203 ft 456 kts 266°
2026-04-29 00:45 52.24190 -63.46513 36199 ft 456 kts 266°
2026-04-29 00:46 52.23638 -63.56822 36198 ft 456 kts 266°
2026-04-29 00:46 52.23079 -63.67077 36197 ft 456 kts 266°
2026-04-29 00:47 52.22509 -63.77372 36197 ft 455 kts 266°
2026-04-29 00:47 52.21931 -63.87652 36193 ft 455 kts 266°
2026-04-29 00:48 52.21344 -63.97931 36191 ft 455 kts 266°
2026-04-29 00:48 52.20748 -64.08201 36190 ft 455 kts 265°
2026-04-29 00:49 52.20143 -64.18468 36185 ft 455 kts 265°
2026-04-29 00:49 52.19529 -64.28741 36182 ft 455 kts 265°
2026-04-29 00:50 52.18905 -64.39022 36179 ft 455 kts 265°
2026-04-29 00:50 52.18278 -64.49215 36178 ft 455 kts 265°
2026-04-29 00:51 52.17637 -64.59491 36179 ft 455 kts 265°
2026-04-29 00:51 52.16988 -64.69736 36178 ft 455 kts 265°
2026-04-29 00:52 52.16330 -64.79993 36174 ft 455 kts 264°
2026-04-29 00:52 52.15663 -64.90235 36171 ft 455 kts 264°
2026-04-29 00:53 52.14987 -65.00481 36171 ft 455 kts 264°
2026-04-29 00:53 52.14301 -65.10735 36166 ft 455 kts 264°
2026-04-29 00:54 52.13612 -65.20901 36166 ft 455 kts 264°
2026-04-29 00:54 52.12910 -65.31127 36168 ft 455 kts 264°
2026-04-29 00:55 52.12199 -65.41354 36166 ft 455 kts 264°
2026-04-29 00:55 52.11479 -65.51591 36161 ft 455 kts 264°
2026-04-29 00:56 52.10750 -65.61812 36158 ft 455 kts 263°
2026-04-29 00:56 52.10012 -65.72041 36157 ft 455 kts 263°
2026-04-29 00:57 52.09270 -65.82192 36154 ft 455 kts 263°
2026-04-29 00:57 52.08514 -65.92416 36150 ft 455 kts 263°
2026-04-29 00:58 52.07750 -66.02628 36151 ft 455 kts 263°
2026-04-29 00:58 52.06977 -66.12842 36152 ft 455 kts 263°
2026-04-29 00:59 52.06195 -66.23050 36148 ft 455 kts 263°
2026-04-29 00:59 52.05405 -66.33246 36149 ft 455 kts 262°
2026-04-29 01:00 52.04605 -66.43451 36144 ft 455 kts 262°
2026-04-29 01:00 52.03797 -66.53633 36142 ft 454 kts 262°
2026-04-29 01:01 52.02986 -66.63746 36140 ft 454 kts 262°
2026-04-29 01:01 52.02161 -66.73924 36137 ft 454 kts 262°
2026-04-29 01:02 52.01328 -66.84091 36132 ft 454 kts 262°
2026-04-29 01:02 52.00486 -66.94250 36128 ft 454 kts 262°
2026-04-29 01:03 51.99640 -67.04427 36120 ft 454 kts 262°
2026-04-29 01:03 51.98842 -67.14594 36118 ft 454 kts 262°
2026-04-29 01:04 51.98050 -67.24765 36105 ft 454 kts 262°
2026-04-29 01:04 51.97240 -67.34938 36106 ft 454 kts 261°
2026-04-29 01:05 51.96421 -67.45040 36108 ft 454 kts 261°
2026-04-29 01:05 51.95587 -67.55200 36097 ft 455 kts 261°
2026-04-29 01:06 51.94744 -67.65365 36091 ft 455 kts 261°
2026-04-29 01:06 51.93892 -67.75530 36086 ft 455 kts 261°
2026-04-29 01:07 51.93176 -67.83987 36082 ft 455 kts 261°
2026-04-29 01:07 51.92308 -67.94154 36075 ft 456 kts 260°
2026-04-29 01:08 51.91428 -68.04337 36068 ft 456 kts 260°
2026-04-29 01:08 51.90541 -68.14512 36065 ft 457 kts 260°
2026-04-29 01:09 51.89642 -68.24712 36053 ft 457 kts 260°
2026-04-29 01:09 51.88734 -68.34907 36052 ft 458 kts 259°
2026-04-29 01:10 51.87815 -68.45126 36044 ft 458 kts 259°
2026-04-29 01:10 51.86892 -68.55283 36042 ft 459 kts 259°
2026-04-29 01:11 51.85954 -68.65509 36038 ft 459 kts 259°
2026-04-29 01:11 51.85007 -68.75731 36034 ft 460 kts 259°
2026-04-29 01:12 51.84049 -68.85975 36034 ft 460 kts 259°
2026-04-29 01:12 51.83082 -68.96220 36024 ft 461 kts 259°
2026-04-29 01:13 51.82104 -69.06470 36026 ft 461 kts 258°
2026-04-29 01:13 51.81116 -69.16733 36015 ft 462 kts 258°
2026-04-29 01:14 51.80119 -69.26991 36020 ft 462 kts 258°
2026-04-29 01:14 51.79120 -69.37173 36008 ft 462 kts 258°
2026-04-29 01:15 51.78107 -69.47413 36003 ft 462 kts 258°
2026-04-29 01:15 51.77083 -69.57665 36001 ft 462 kts 258°
2026-04-29 01:16 51.76051 -69.67899 36000 ft 462 kts 257°
2026-04-29 01:16 51.75011 -69.78119 35995 ft 461 kts 257°
2026-04-29 01:17 51.73963 -69.88335 35994 ft 461 kts 257°
2026-04-29 01:17 51.72913 -69.98479 35988 ft 460 kts 257°
2026-04-29 01:18 51.71848 -70.08667 35981 ft 460 kts 257°
2026-04-29 01:18 51.70237 -70.23922 35970 ft 459 kts 256°
2026-04-29 01:19 51.69161 -70.34005 35966 ft 459 kts 256°
2026-04-29 01:19 51.68063 -70.44200 35956 ft 459 kts 256°
2026-04-29 01:20 51.66972 -70.54255 35952 ft 459 kts 256°
2026-04-29 01:20 51.65863 -70.64385 35946 ft 459 kts 256°
2026-04-29 01:21 51.64745 -70.74498 35940 ft 459 kts 255°
2026-04-29 01:21 51.63618 -70.84615 35936 ft 459 kts 255°
2026-04-29 01:22 51.62481 -70.94733 35932 ft 459 kts 255°
2026-04-29 01:22 51.61335 -71.04850 35925 ft 459 kts 255°
2026-04-29 01:23 51.60181 -71.14967 35918 ft 459 kts 255°
2026-04-29 01:23 51.59020 -71.25064 35917 ft 459 kts 254°
2026-04-29 01:24 51.57856 -71.35107 35908 ft 459 kts 254°
2026-04-29 01:24 51.56677 -71.45200 35903 ft 459 kts 254°
2026-04-29 01:25 51.55491 -71.55281 35898 ft 459 kts 254°
2026-04-29 01:25 51.54297 -71.65342 35889 ft 459 kts 253°
2026-04-29 01:26 51.53099 -71.75361 35884 ft 458 kts 253°
2026-04-29 01:26 51.51887 -71.85420 35879 ft 458 kts 253°
2026-04-29 01:27 51.50668 -71.95454 35873 ft 458 kts 253°
2026-04-29 01:27 51.49440 -72.05495 35865 ft 458 kts 253°
2026-04-29 01:28 51.48203 -72.15527 35856 ft 458 kts 253°
2026-04-29 01:28 51.46956 -72.25565 35852 ft 459 kts 252°
2026-04-29 01:29 51.45698 -72.35619 35848 ft 460 kts 252°
2026-04-29 01:29 51.44432 -72.45665 35841 ft 460 kts 252°
2026-04-29 01:30 51.43154 -72.55734 35837 ft 461 kts 252°
2026-04-29 01:30 51.41874 -72.65737 35831 ft 462 kts 252°
2026-04-29 01:31 51.40576 -72.75816 35823 ft 462 kts 252°
2026-04-29 01:31 51.39270 -72.85890 35815 ft 462 kts 252°
2026-04-29 01:32 51.37954 -72.95964 35809 ft 462 kts 251°
2026-04-29 01:32 51.36628 -73.06036 35799 ft 462 kts 251°
2026-04-29 01:33 51.35293 -73.16113 35794 ft 462 kts 251°
2026-04-29 01:33 51.33950 -73.26173 35789 ft 462 kts 251°
2026-04-29 01:34 51.32599 -73.36229 35785 ft 462 kts 251°
2026-04-29 01:34 51.31248 -73.46210 35777 ft 462 kts 251°
2026-04-29 01:35 51.29879 -73.56257 35775 ft 462 kts 251°
2026-04-29 01:35 51.28502 -73.66298 35771 ft 463 kts 251°
2026-04-29 01:36 51.27116 -73.76330 35766 ft 463 kts 251°
2026-04-29 01:36 51.25721 -73.86353 35757 ft 463 kts 251°
2026-04-29 01:37 51.24318 -73.96382 35753 ft 463 kts 250°
2026-04-29 01:37 51.22908 -74.06385 35753 ft 463 kts 250°
2026-04-29 01:38 51.21484 -74.16416 35749 ft 463 kts 250°
2026-04-29 01:38 51.20057 -74.26409 35743 ft 462 kts 250°
2026-04-29 01:39 51.18620 -74.36409 35738 ft 462 kts 250°
2026-04-29 01:39 51.17183 -74.46339 35736 ft 462 kts 250°
2026-04-29 01:40 51.15730 -74.56314 35732 ft 462 kts 250°
2026-04-29 01:40 51.14267 -74.66291 35729 ft 462 kts 250°
2026-04-29 01:41 51.12793 -74.76272 35731 ft 463 kts 250°
2026-04-29 01:41 51.11313 -74.86238 35724 ft 463 kts 250°
2026-04-29 01:42 51.09819 -74.96233 35718 ft 464 kts 250°
2026-04-29 01:42 51.08317 -75.06227 35710 ft 465 kts 250°
2026-04-29 01:43 51.06804 -75.16234 35707 ft 465 kts 250°
2026-04-29 01:43 51.05278 -75.26244 35703 ft 466 kts 250°
2026-04-29 01:44 51.03741 -75.36255 35697 ft 467 kts 250°
2026-04-29 01:44 51.02195 -75.46272 35694 ft 467 kts 250°
2026-04-29 01:45 51.00638 -75.56293 35691 ft 467 kts 250°
2026-04-29 01:45 50.99082 -75.66261 35690 ft 468 kts 250°
2026-04-29 01:46 50.97509 -75.76283 35680 ft 468 kts 250°
2026-04-29 01:46 50.95924 -75.86311 35681 ft 468 kts 250°
2026-04-29 01:47 50.94331 -75.96331 35675 ft 469 kts 251°
2026-04-29 01:47 50.92728 -76.06357 35668 ft 469 kts 251°
2026-04-29 01:48 50.91115 -76.16374 35666 ft 469 kts 251°
2026-04-29 01:48 50.89493 -76.26389 35660 ft 469 kts 251°
2026-04-29 01:49 50.87862 -76.36403 35655 ft 469 kts 251°
2026-04-29 01:49 50.86223 -76.46404 35652 ft 470 kts 251°
2026-04-29 01:50 50.84854 -76.54719 35649 ft 470 kts 251°
2026-04-29 01:50 50.82928 -76.66340 35646 ft 470 kts 251°
2026-04-29 01:51 50.81261 -76.76333 35636 ft 470 kts 251°
2026-04-29 01:51 50.79868 -76.84641 35635 ft 470 kts 251°
2026-04-29 01:52 50.78184 -76.94633 35624 ft 470 kts 251°
2026-04-29 01:52 50.76490 -77.04628 35628 ft 471 kts 251°
2026-04-29 01:53 50.74787 -77.14615 35624 ft 471 kts 251°
2026-04-29 01:53 50.73074 -77.24604 35623 ft 471 kts 251°
2026-04-29 01:54 50.71353 -77.34584 35621 ft 472 kts 251°
2026-04-29 01:54 50.69630 -77.44517 35622 ft 472 kts 251°
2026-04-29 01:55 50.67885 -77.54520 35620 ft 472 kts 251°
2026-04-29 01:55 50.66134 -77.64504 35620 ft 473 kts 251°
2026-04-29 01:56 50.64372 -77.74489 35603 ft 473 kts 251°
2026-04-29 01:56 50.62600 -77.84478 35612 ft 473 kts 251°
2026-04-29 01:57 50.60832 -77.94393 35616 ft 474 kts 251°
2026-04-29 01:57 50.59042 -78.04376 35613 ft 474 kts 251°
2026-04-29 01:58 50.57244 -78.14346 35608 ft 474 kts 251°
2026-04-29 01:58 50.55434 -78.24327 35606 ft 474 kts 251°
2026-04-29 01:59 50.53617 -78.34289 35600 ft 474 kts 251°
2026-04-29 01:59 50.51792 -78.44244 35598 ft 474 kts 251°
2026-04-29 02:00 50.49959 -78.54188 35598 ft 474 kts 251°
2026-04-29 02:00 50.48130 -78.64057 35595 ft 474 kts 251°
2026-04-29 02:01 50.46278 -78.73997 35590 ft 474 kts 251°
2026-04-29 02:01 50.44416 -78.83936 35588 ft 474 kts 251°
2026-04-29 02:02 50.42548 -78.93858 35586 ft 475 kts 251°
2026-04-29 02:02 50.40670 -79.03779 35588 ft 475 kts 251°
2026-04-29 02:03 50.38784 -79.13693 35589 ft 475 kts 251°
2026-04-29 02:03 50.36887 -79.23607 35588 ft 475 kts 251°
2026-04-29 02:04 50.34983 -79.33508 35588 ft 475 kts 251°
2026-04-29 02:04 50.33081 -79.43343 35603 ft 474 kts 251°
2026-04-29 02:05 50.31158 -79.53240 35584 ft 475 kts 251°
2026-04-29 02:05 50.29229 -79.63120 35591 ft 475 kts 251°
2026-04-29 02:06 50.27292 -79.72986 35597 ft 475 kts 251°
2026-04-29 02:06 50.25344 -79.82860 35599 ft 475 kts 251°
2026-04-29 02:07 50.23389 -79.92713 35604 ft 475 kts 251°
2026-04-29 02:07 50.21437 -80.02505 35595 ft 475 kts 251°
2026-04-29 02:08 50.19464 -80.12354 35599 ft 475 kts 251°
2026-04-29 02:08 50.17487 -80.22173 35600 ft 474 kts 251°
2026-04-29 02:09 50.15500 -80.31994 35605 ft 474 kts 251°
2026-04-29 02:09 50.13507 -80.41792 35605 ft 474 kts 251°
2026-04-29 02:10 50.11504 -80.51590 35608 ft 474 kts 251°
2026-04-29 02:10 50.09490 -80.61393 35617 ft 474 kts 251°
2026-04-29 02:11 50.07487 -80.71097 35619 ft 474 kts 251°
2026-04-29 02:11 50.05457 -80.80884 35614 ft 475 kts 251°
2026-04-29 02:12 50.03419 -80.90662 35614 ft 475 kts 251°
2026-04-29 02:12 50.01375 -81.00423 35621 ft 475 kts 251°
2026-04-29 02:13 49.99321 -81.10182 35629 ft 475 kts 251°
2026-04-29 02:13 49.97261 -81.19923 35635 ft 474 kts 251°
2026-04-29 02:14 49.95191 -81.29663 35642 ft 474 kts 250°
2026-04-29 02:14 49.93115 -81.39384 35650 ft 474 kts 250°
2026-04-29 02:15 49.91045 -81.49034 35653 ft 474 kts 250°
2026-04-29 02:15 49.88950 -81.58749 35658 ft 474 kts 250°
2026-04-29 02:16 49.86851 -81.68440 35664 ft 475 kts 250°
2026-04-29 02:16 49.84738 -81.78152 35674 ft 475 kts 250°
2026-04-29 02:17 49.82617 -81.87852 35678 ft 475 kts 250°
2026-04-29 02:17 49.80487 -81.97546 35684 ft 475 kts 250°
2026-04-29 02:18 49.78351 -82.07227 35689 ft 475 kts 250°
2026-04-29 02:18 49.76206 -82.16898 35699 ft 475 kts 250°
2026-04-29 02:19 49.74065 -82.26510 35705 ft 475 kts 250°
2026-04-29 02:19 49.71903 -82.36173 35714 ft 475 kts 250°
2026-04-29 02:20 49.69734 -82.45820 35720 ft 475 kts 250°
2026-04-29 02:20 49.67557 -82.55460 35725 ft 475 kts 250°
2026-04-29 02:21 49.65373 -82.65087 35731 ft 475 kts 250°
2026-04-29 02:21 49.63181 -82.74704 35734 ft 475 kts 250°
2026-04-29 02:22 49.60984 -82.84302 35744 ft 474 kts 250°
2026-04-29 02:22 49.58791 -82.93835 35752 ft 474 kts 250°
2026-04-29 02:23 49.56580 -83.03409 35763 ft 474 kts 250°
2026-04-29 02:23 49.54358 -83.12986 35767 ft 474 kts 250°
2026-04-29 02:24 49.52133 -83.22533 35775 ft 474 kts 249°
2026-04-29 02:25 49.48792 -83.36787 35788 ft 474 kts 249°
2026-04-29 02:25 49.46547 -83.46312 35789 ft 473 kts 249°
2026-04-29 02:26 49.44291 -83.55842 35798 ft 473 kts 249°
2026-04-29 02:26 49.42035 -83.65330 35807 ft 473 kts 249°
2026-04-29 02:27 49.39770 -83.74818 35810 ft 473 kts 249°
2026-04-29 02:27 49.37514 -83.84224 35817 ft 473 kts 249°
2026-04-29 02:28 49.35233 -83.93697 35827 ft 472 kts 249°
2026-04-29 02:28 49.32947 -84.03149 35830 ft 472 kts 249°
2026-04-29 02:29 49.30653 -84.12591 35835 ft 472 kts 249°
2026-04-29 02:29 49.28367 -84.21961 35838 ft 472 kts 249°
2026-04-29 02:30 49.26061 -84.31374 35846 ft 472 kts 249°
2026-04-29 02:30 49.23743 -84.40794 35855 ft 472 kts 249°
2026-04-29 02:31 49.21420 -84.50198 35856 ft 472 kts 249°
2026-04-29 02:31 49.19089 -84.59593 35867 ft 472 kts 249°
2026-04-29 02:32 49.16770 -84.68898 35874 ft 471 kts 249°
2026-04-29 02:32 49.14428 -84.78256 35883 ft 471 kts 249°
2026-04-29 02:33 49.12080 -84.87604 35889 ft 471 kts 249°
2026-04-29 02:33 49.09721 -84.96951 35886 ft 471 kts 248°
2026-04-29 02:34 49.07357 -85.06284 35894 ft 471 kts 248°
2026-04-29 02:34 49.05003 -85.15537 35903 ft 471 kts 248°
2026-04-29 02:35 49.02627 -85.24837 35909 ft 471 kts 248°
2026-04-29 02:35 49.00247 -85.34119 35919 ft 470 kts 248°
2026-04-29 02:36 48.97859 -85.43390 35928 ft 470 kts 248°
2026-04-29 02:36 48.95464 -85.52652 35936 ft 470 kts 248°
2026-04-29 02:37 48.93064 -85.61897 35944 ft 469 kts 248°
2026-04-29 02:37 48.90657 -85.71131 35954 ft 469 kts 248°
2026-04-29 02:38 48.88257 -85.80300 35960 ft 469 kts 248°
2026-04-29 02:38 48.85842 -85.89491 35964 ft 468 kts 248°
2026-04-29 02:39 48.83828 -85.97126 35971 ft 468 kts 248°
2026-04-29 02:39 48.81402 -86.06294 35974 ft 468 kts 248°
2026-04-29 02:40 48.78969 -86.15452 35979 ft 468 kts 248°
2026-04-29 02:40 48.76528 -86.24599 35985 ft 467 kts 248°
2026-04-29 02:41 48.74099 -86.33670 35988 ft 467 kts 248°
2026-04-29 02:41 48.71517 -86.42701 35993 ft 467 kts 245°
2026-04-29 02:42 48.68819 -86.51655 36000 ft 467 kts 245°
2026-04-29 02:42 48.66133 -86.60597 36004 ft 467 kts 245°
2026-04-29 02:43 48.63464 -86.69545 36004 ft 467 kts 245°
2026-04-29 02:43 48.60794 -86.78500 36012 ft 467 kts 245°
2026-04-29 02:44 48.58121 -86.87433 36013 ft 467 kts 245°
2026-04-29 02:44 48.55440 -86.96358 36015 ft 466 kts 245°
2026-04-29 02:45 48.52770 -87.05206 36022 ft 466 kts 245°
2026-04-29 02:45 48.50074 -87.14113 36022 ft 466 kts 245°
2026-04-29 02:46 48.47375 -87.22997 36029 ft 466 kts 245°
2026-04-29 02:46 48.44668 -87.31873 36035 ft 466 kts 245°
2026-04-29 02:47 48.41956 -87.40739 36037 ft 466 kts 245°
2026-04-29 02:47 48.39233 -87.49603 36040 ft 466 kts 245°
2026-04-29 02:48 48.36507 -87.58450 36043 ft 466 kts 245°
2026-04-29 02:48 48.33796 -87.67213 36047 ft 465 kts 245°
2026-04-29 02:49 48.31045 -87.76079 36054 ft 465 kts 245°
2026-04-29 02:49 48.28323 -87.84816 36058 ft 464 kts 245°
2026-04-29 02:50 48.25577 -87.93601 36057 ft 464 kts 245°
2026-04-29 02:50 48.22829 -88.02361 36061 ft 464 kts 245°
2026-04-29 02:51 48.20077 -88.11106 36063 ft 463 kts 245°
2026-04-29 02:51 48.17320 -88.19833 36064 ft 463 kts 245°
2026-04-29 02:52 48.14556 -88.28553 36067 ft 463 kts 245°
2026-04-29 02:52 48.11787 -88.37258 36066 ft 463 kts 245°
2026-04-29 02:53 48.09016 -88.45940 36063 ft 462 kts 245°
2026-04-29 02:53 48.06260 -88.54547 36065 ft 462 kts 245°
2026-04-29 02:54 48.03477 -88.63208 36064 ft 461 kts 245°
2026-04-29 02:54 48.00696 -88.71830 36064 ft 461 kts 244°
2026-04-29 02:55 47.97908 -88.80447 36061 ft 460 kts 244°
2026-04-29 02:55 47.95113 -88.89057 36066 ft 460 kts 244°
2026-04-29 02:56 47.92312 -88.97656 36063 ft 460 kts 244°
2026-04-29 02:56 47.89532 -89.06163 36064 ft 460 kts 244°
2026-04-29 02:57 47.86725 -89.14723 36061 ft 460 kts 244°
2026-04-29 02:57 47.83914 -89.23265 36061 ft 460 kts 244°
2026-04-29 02:58 47.81088 -89.31827 36057 ft 460 kts 244°
2026-04-29 02:58 47.78266 -89.40344 36059 ft 460 kts 244°
2026-04-29 02:59 47.75446 -89.48830 36056 ft 460 kts 244°
2026-04-29 02:59 47.72609 -89.57338 36056 ft 459 kts 244°
2026-04-29 03:00 47.69765 -89.65841 36053 ft 459 kts 244°
2026-04-29 03:00 47.66913 -89.74338 36052 ft 459 kts 244°
2026-04-29 03:01 47.64059 -89.82813 36054 ft 459 kts 244°
2026-04-29 03:01 47.61196 -89.91286 36053 ft 459 kts 244°
2026-04-29 03:02 47.58327 -89.99750 36053 ft 460 kts 244°
2026-04-29 03:02 47.56905 -90.03942 35041 ft 464 kts 243°
2026-04-29 03:02 47.55447 -90.08228 35291 ft 468 kts 243°
2026-04-29 03:02 47.53969 -90.12560 35538 ft 472 kts 243°
2026-04-29 03:03 47.52484 -90.16907 35793 ft 475 kts 243°
2026-04-29 03:03 47.50986 -90.21287 35982 ft 480 kts 243°
2026-04-29 03:03 47.49462 -90.25733 36006 ft 488 kts 243°
2026-04-29 03:04 47.46365 -90.34747 36001 ft 492 kts 243°
2026-04-29 03:04 47.43264 -90.43745 35999 ft 491 kts 243°
2026-04-29 03:05 47.40155 -90.52734 36002 ft 491 kts 243°
2026-04-29 03:05 47.37041 -90.61706 36001 ft 491 kts 243°
2026-04-29 03:06 47.33941 -90.70607 35998 ft 491 kts 243°
2026-04-29 03:06 47.30796 -90.79607 36001 ft 491 kts 243°
2026-04-29 03:07 47.27681 -90.88490 36000 ft 491 kts 242°
2026-04-29 03:07 47.24536 -90.97427 36001 ft 491 kts 242°
2026-04-29 03:08 47.21389 -91.06342 36000 ft 491 kts 242°
2026-04-29 03:08 47.18234 -91.15248 36003 ft 491 kts 242°
2026-04-29 03:09 47.15071 -91.24149 35999 ft 491 kts 242°
2026-04-29 03:09 47.11905 -91.33027 35999 ft 491 kts 242°
2026-04-29 03:10 47.08731 -91.41896 36000 ft 491 kts 242°
2026-04-29 03:10 47.05546 -91.50767 36000 ft 491 kts 242°
2026-04-29 03:11 47.02373 -91.59575 35997 ft 491 kts 242°
2026-04-29 03:11 46.99177 -91.68418 36000 ft 491 kts 242°
2026-04-29 03:12 46.95976 -91.77246 36001 ft 491 kts 242°
2026-04-29 03:12 46.92767 -91.86065 36000 ft 491 kts 242°
2026-04-29 03:13 46.89550 -91.94879 36001 ft 491 kts 242°
2026-04-29 03:13 46.86326 -92.03682 35998 ft 491 kts 242°
2026-04-29 03:14 46.83098 -92.12467 36002 ft 491 kts 242°
2026-04-29 03:14 46.79863 -92.21246 36003 ft 491 kts 241°
2026-04-29 03:15 46.76901 -92.30229 36001 ft 491 kts 246°
2026-04-29 03:15 46.74172 -92.39297 36002 ft 491 kts 246°
2026-04-29 03:16 46.71389 -92.48386 36003 ft 491 kts 245°
2026-04-29 03:16 46.68548 -92.57437 36002 ft 491 kts 245°
2026-04-29 03:17 46.65679 -92.66471 36001 ft 491 kts 245°
2026-04-29 03:17 46.62805 -92.75484 35999 ft 491 kts 245°
2026-04-29 03:18 46.59924 -92.84500 36002 ft 491 kts 245°
2026-04-29 03:18 46.57039 -92.93497 36001 ft 491 kts 245°
2026-04-29 03:19 46.54147 -93.02491 35998 ft 491 kts 245°
2026-04-29 03:19 46.51268 -93.11407 35998 ft 491 kts 245°
2026-04-29 03:20 46.48362 -93.20378 36002 ft 491 kts 245°
2026-04-29 03:20 46.45447 -93.29346 36001 ft 491 kts 244°
2026-04-29 03:21 46.42524 -93.38307 36001 ft 491 kts 244°
2026-04-29 03:21 46.39596 -93.47253 36001 ft 491 kts 244°
2026-04-29 03:22 46.36658 -93.56195 36001 ft 491 kts 244°
2026-04-29 03:22 46.33739 -93.65053 36000 ft 491 kts 244°
2026-04-29 03:23 46.30786 -93.73981 35997 ft 491 kts 244°
2026-04-29 03:23 46.27831 -93.82885 36003 ft 491 kts 244°
2026-04-29 03:24 46.24870 -93.91778 35998 ft 491 kts 244°
2026-04-29 03:24 46.21900 -94.00666 36002 ft 491 kts 244°
2026-04-29 03:25 46.18920 -94.09554 36000 ft 491 kts 244°
2026-04-29 03:25 46.15953 -94.18376 36000 ft 491 kts 244°
2026-04-29 03:26 46.12965 -94.27226 35999 ft 491 kts 244°
2026-04-29 03:26 46.10474 -94.34585 36000 ft 491 kts 244°
2026-04-29 03:27 46.07474 -94.43417 36003 ft 491 kts 244°
2026-04-29 03:27 46.04460 -94.52263 35998 ft 491 kts 244°
2026-04-29 03:28 46.01445 -94.61082 36000 ft 491 kts 244°
2026-04-29 03:28 45.98437 -94.69848 36000 ft 491 kts 243°
2026-04-29 03:29 45.95409 -94.78645 36002 ft 491 kts 243°
2026-04-29 03:29 45.92374 -94.87436 36001 ft 491 kts 243°
2026-04-29 03:30 45.89329 -94.96224 36003 ft 491 kts 243°
2026-04-29 03:30 45.86278 -95.04998 35999 ft 491 kts 243°
2026-04-29 03:31 45.81690 -95.18143 36001 ft 491 kts 243°
2026-04-29 03:31 45.78625 -95.26889 36001 ft 491 kts 243°
2026-04-29 03:32 45.75555 -95.35619 35999 ft 491 kts 243°
2026-04-29 03:32 45.72475 -95.44348 36001 ft 491 kts 243°
2026-04-29 03:33 45.69409 -95.53011 36002 ft 491 kts 243°
2026-04-29 03:33 45.66316 -95.61723 36000 ft 491 kts 243°
2026-04-29 03:34 45.63216 -95.70423 35999 ft 491 kts 243°
2026-04-29 03:34 45.60111 -95.79112 35997 ft 491 kts 243°
2026-04-29 03:35 45.57002 -95.87782 36001 ft 491 kts 243°
2026-04-29 03:35 45.53882 -95.96454 36003 ft 491 kts 243°
2026-04-29 03:36 45.50758 -96.05111 35999 ft 491 kts 243°
2026-04-29 03:36 45.47627 -96.13760 35999 ft 491 kts 243°
2026-04-29 03:37 45.44508 -96.22348 36000 ft 491 kts 242°
2026-04-29 03:37 45.41365 -96.30975 35999 ft 491 kts 242°
2026-04-29 03:38 45.38214 -96.39597 36001 ft 491 kts 242°
2026-04-29 03:38 45.35054 -96.48215 36001 ft 491 kts 242°
2026-04-29 03:39 45.31890 -96.56818 36000 ft 491 kts 242°
2026-04-29 03:39 45.28721 -96.65406 36001 ft 491 kts 242°
2026-04-29 03:40 45.25545 -96.73988 35999 ft 491 kts 242°
2026-04-29 03:40 45.22363 -96.82556 35999 ft 491 kts 242°
2026-04-29 03:41 45.19190 -96.91076 35997 ft 491 kts 242°
2026-04-29 03:41 45.15996 -96.99624 36000 ft 491 kts 242°
2026-04-29 03:42 45.12793 -97.08170 36003 ft 491 kts 242°
2026-04-29 03:42 45.09584 -97.16706 36000 ft 491 kts 242°
2026-04-29 03:43 45.06367 -97.25236 35999 ft 491 kts 242°
2026-04-29 03:43 45.03144 -97.33756 36003 ft 491 kts 242°
2026-04-29 03:44 44.99916 -97.42263 36001 ft 491 kts 242°
2026-04-29 03:44 44.96700 -97.50712 36001 ft 491 kts 242°
2026-04-29 03:45 44.93458 -97.59203 36002 ft 491 kts 242°
2026-04-29 03:45 44.90212 -97.67678 35999 ft 491 kts 241°
2026-04-29 03:46 44.86954 -97.76160 36001 ft 491 kts 241°
2026-04-29 03:46 44.83692 -97.84626 36001 ft 491 kts 241°
2026-04-29 03:47 44.80426 -97.93075 35998 ft 491 kts 241°
2026-04-29 03:47 44.77156 -98.01512 35997 ft 491 kts 241°
2026-04-29 03:48 44.73895 -98.09896 36001 ft 491 kts 241°
2026-04-29 03:48 44.70613 -98.18313 36002 ft 491 kts 241°
2026-04-29 03:49 44.67322 -98.26725 36001 ft 491 kts 241°
2026-04-29 03:49 44.64022 -98.35135 35999 ft 491 kts 241°
2026-04-29 03:50 44.60719 -98.43528 36003 ft 491 kts 241°
2026-04-29 03:50 44.57411 -98.51909 36002 ft 491 kts 241°
2026-04-29 03:51 44.54098 -98.60275 36001 ft 491 kts 241°
2026-04-29 03:51 44.50776 -98.68642 36001 ft 491 kts 240°
2026-04-29 03:52 44.47448 -98.76997 35998 ft 491 kts 240°
2026-04-29 03:52 44.44118 -98.85333 36002 ft 491 kts 240°
2026-04-29 03:53 44.40780 -98.93664 36003 ft 491 kts 240°
2026-04-29 03:53 44.37452 -99.01946 35998 ft 491 kts 240°
2026-04-29 03:54 44.34103 -99.10258 35999 ft 491 kts 240°
2026-04-29 03:54 44.30745 -99.18565 36003 ft 491 kts 240°
2026-04-29 03:55 44.27381 -99.26862 36001 ft 491 kts 240°
2026-04-29 03:55 44.24010 -99.35155 36001 ft 491 kts 240°
2026-04-29 03:56 44.20635 -99.43431 36000 ft 491 kts 240°
2026-04-29 03:56 44.17249 -99.51709 36001 ft 491 kts 240°
2026-04-29 03:57 44.13864 -99.59962 36001 ft 491 kts 240°
2026-04-29 03:57 44.10471 -99.68212 36003 ft 491 kts 240°
2026-04-29 03:58 44.07097 -99.76391 36001 ft 491 kts 240°
2026-04-29 03:58 44.03694 -99.84615 36001 ft 491 kts 240°
2026-04-29 03:59 44.00282 -99.92839 35998 ft 491 kts 240°
2026-04-29 03:59 43.96860 -100.01062 36001 ft 491 kts 240°
2026-04-29 04:00 43.93435 -100.09271 36001 ft 491 kts 240°
2026-04-29 04:00 43.90004 -100.17469 36000 ft 491 kts 240°
2026-04-29 04:01 43.86593 -100.25596 36002 ft 491 kts 239°
2026-04-29 04:01 43.83155 -100.33764 36002 ft 491 kts 239°
2026-04-29 04:02 43.79710 -100.41926 35997 ft 491 kts 239°
2026-04-29 04:02 43.76255 -100.50088 35997 ft 491 kts 239°
2026-04-29 04:03 43.72797 -100.58235 35999 ft 491 kts 239°
2026-04-29 04:03 43.69336 -100.66364 35997 ft 491 kts 239°
2026-04-29 04:04 43.65864 -100.74498 36002 ft 491 kts 239°
2026-04-29 04:04 43.62391 -100.82612 36000 ft 491 kts 239°
2026-04-29 04:05 43.58927 -100.90679 35999 ft 491 kts 239°
2026-04-29 04:05 43.55442 -100.98776 36000 ft 491 kts 239°
2026-04-29 04:06 43.51950 -101.06864 36001 ft 491 kts 239°
2026-04-29 04:06 43.48457 -101.14933 36003 ft 491 kts 239°
2026-04-29 04:07 43.44951 -101.23011 35999 ft 491 kts 239°
2026-04-29 04:07 43.41441 -101.31073 36002 ft 491 kts 239°
2026-04-29 04:08 43.37927 -101.39122 36000 ft 491 kts 239°
2026-04-29 04:08 43.34407 -101.47164 36000 ft 491 kts 239°
2026-04-29 04:09 43.30881 -101.55196 35997 ft 491 kts 239°
2026-04-29 04:09 43.27369 -101.63176 35999 ft 491 kts 239°
2026-04-29 04:10 43.23831 -101.71192 35998 ft 491 kts 239°
2026-04-29 04:10 43.20280 -101.79215 36003 ft 491 kts 238°
2026-04-29 04:11 43.16732 -101.87212 36001 ft 491 kts 238°
2026-04-29 04:11 43.13780 -101.93847 35999 ft 491 kts 238°
2026-04-29 04:12 43.09644 -102.03117 35999 ft 491 kts 238°
2026-04-29 04:12 43.06080 -102.11083 36000 ft 491 kts 238°
2026-04-29 04:13 43.03091 -102.17747 36001 ft 491 kts 238°
2026-04-29 04:13 42.99518 -102.25695 35997 ft 491 kts 238°
2026-04-29 04:14 42.95961 -102.33583 35996 ft 491 kts 238°
2026-04-29 04:14 42.92373 -102.41521 36000 ft 491 kts 238°
2026-04-29 04:15 42.88781 -102.49444 36001 ft 491 kts 238°
2026-04-29 04:15 42.85183 -102.57360 36001 ft 491 kts 238°
2026-04-29 04:16 42.81580 -102.65268 36001 ft 491 kts 238°
2026-04-29 04:16 42.77973 -102.73160 35998 ft 491 kts 238°
2026-04-29 04:17 42.74356 -102.81055 35999 ft 491 kts 238°
2026-04-29 04:17 42.70738 -102.88931 36001 ft 491 kts 238°
2026-04-29 04:18 42.67113 -102.96802 36001 ft 491 kts 238°
2026-04-29 04:18 42.63508 -103.04608 35999 ft 491 kts 238°
2026-04-29 04:19 42.59871 -103.12463 36000 ft 491 kts 238°
2026-04-29 04:19 42.56232 -103.20301 36000 ft 491 kts 238°
2026-04-29 04:20 42.52582 -103.28141 35996 ft 491 kts 238°
2026-04-29 04:20 42.48935 -103.35957 35999 ft 491 kts 237°
2026-04-29 04:21 42.45280 -103.43767 35997 ft 491 kts 237°
2026-04-29 04:21 42.41615 -103.51577 35999 ft 491 kts 237°
2026-04-29 04:22 42.37949 -103.59373 36001 ft 491 kts 237°
2026-04-29 04:22 42.34280 -103.67152 36003 ft 491 kts 237°
2026-04-29 04:23 42.30603 -103.74929 35997 ft 491 kts 237°
2026-04-29 04:23 42.26917 -103.82702 36003 ft 491 kts 237°
2026-04-29 04:24 42.23231 -103.90458 36003 ft 491 kts 237°
2026-04-29 04:24 42.19564 -103.98154 36003 ft 491 kts 237°
2026-04-29 04:25 42.15868 -104.05890 35997 ft 491 kts 237°
2026-04-29 04:25 42.12164 -104.13621 35997 ft 491 kts 237°
2026-04-29 04:26 42.08456 -104.21344 36001 ft 491 kts 237°
2026-04-29 04:26 42.04739 -104.29064 35999 ft 491 kts 237°
2026-04-29 04:27 42.01013 -104.36783 36001 ft 491 kts 237°
2026-04-29 04:27 41.97290 -104.44476 36001 ft 491 kts 237°
2026-04-29 04:28 41.93585 -104.52114 36001 ft 491 kts 237°
2026-04-29 04:28 41.89847 -104.59799 35999 ft 491 kts 237°
2026-04-29 04:29 41.86110 -104.67462 36002 ft 491 kts 237°
2026-04-29 04:29 41.82365 -104.75123 35999 ft 491 kts 237°
2026-04-29 04:30 41.78613 -104.82780 35999 ft 491 kts 237°
2026-04-29 04:31 41.73000 -104.94195 36001 ft 491 kts 236°
2026-04-29 04:31 41.69231 -105.01838 35998 ft 491 kts 236°
2026-04-29 04:32 41.65460 -105.09465 35999 ft 491 kts 236°
2026-04-29 04:32 41.61691 -105.17069 36000 ft 491 kts 236°
2026-04-29 04:33 41.57913 -105.24673 36002 ft 491 kts 236°
2026-04-29 04:33 41.54131 -105.32264 36002 ft 491 kts 236°
2026-04-29 04:34 41.50366 -105.39803 35999 ft 491 kts 236°
2026-04-29 04:34 41.46576 -105.47375 35999 ft 491 kts 236°
2026-04-29 04:35 41.42778 -105.54943 36000 ft 491 kts 236°
2026-04-29 04:35 41.38976 -105.62501 35998 ft 491 kts 236°
2026-04-29 04:36 41.35167 -105.70053 35999 ft 491 kts 236°
2026-04-29 04:36 41.31356 -105.77590 35999 ft 491 kts 236°
2026-04-29 04:37 41.27536 -105.85128 36001 ft 491 kts 236°
2026-04-29 04:37 41.23715 -105.92647 36002 ft 491 kts 236°
2026-04-29 04:38 41.19888 -106.00160 36002 ft 491 kts 236°
2026-04-29 04:38 41.16058 -106.07663 35999 ft 491 kts 236°
2026-04-29 04:39 41.12243 -106.15118 36001 ft 491 kts 236°
2026-04-29 04:39 41.08401 -106.22605 36001 ft 491 kts 236°
2026-04-29 04:40 41.04556 -106.30081 35999 ft 491 kts 236°
2026-04-29 04:40 41.00704 -106.37553 36000 ft 491 kts 236°
2026-04-29 04:41 40.96850 -106.45009 35999 ft 491 kts 236°
2026-04-29 04:41 40.92990 -106.52462 35995 ft 491 kts 235°
2026-04-29 04:42 40.89125 -106.59904 36001 ft 491 kts 235°
2026-04-29 04:42 40.85255 -106.67339 36002 ft 491 kts 235°
2026-04-29 04:43 40.81380 -106.74764 36001 ft 491 kts 235°
2026-04-29 04:43 40.77499 -106.82185 36001 ft 491 kts 235°
2026-04-29 04:44 40.73616 -106.89590 36001 ft 491 kts 235°
2026-04-29 04:44 40.69751 -106.96945 36001 ft 491 kts 235°
2026-04-29 04:45 40.65861 -107.04329 36001 ft 491 kts 235°
2026-04-29 04:45 40.61959 -107.11719 36000 ft 491 kts 235°
2026-04-29 04:46 40.58056 -107.19092 35998 ft 491 kts 235°
2026-04-29 04:46 40.54148 -107.26458 36000 ft 491 kts 235°
2026-04-29 04:47 40.49862 -107.33434 36001 ft 491 kts 227°
2026-04-29 04:47 40.45228 -107.39935 36003 ft 491 kts 226°
2026-04-29 04:48 40.40504 -107.46406 35999 ft 491 kts 226°
2026-04-29 04:48 40.35778 -107.52871 36000 ft 491 kts 226°
2026-04-29 04:49 40.31056 -107.59341 35999 ft 491 kts 226°
2026-04-29 04:49 40.26327 -107.65817 35999 ft 491 kts 226°
2026-04-29 04:50 40.21599 -107.72279 36001 ft 491 kts 226°
2026-04-29 04:50 40.16902 -107.78684 35996 ft 491 kts 226°
2026-04-29 04:51 40.12171 -107.85122 35998 ft 491 kts 226°
2026-04-29 04:51 40.07453 -107.91563 36000 ft 491 kts 228°
2026-04-29 04:52 40.03096 -107.98419 36000 ft 491 kts 231°
2026-04-29 04:52 39.98832 -108.05371 35999 ft 491 kts 231°
2026-04-29 04:53 39.94571 -108.12345 35999 ft 491 kts 231°
2026-04-29 04:53 39.90306 -108.19293 35999 ft 491 kts 231°
2026-04-29 04:54 39.86030 -108.26232 36002 ft 491 kts 231°
2026-04-29 04:54 39.81754 -108.33151 35998 ft 491 kts 231°
2026-04-29 04:55 39.77471 -108.40065 35996 ft 491 kts 231°
2026-04-29 04:55 39.73185 -108.46971 36002 ft 491 kts 231°
2026-04-29 04:56 39.68919 -108.53830 36002 ft 491 kts 231°
2026-04-29 04:56 39.65321 -108.59602 35998 ft 491 kts 231°
2026-04-29 04:57 39.61049 -108.66443 36001 ft 491 kts 231°
2026-04-29 04:57 39.56747 -108.73317 36000 ft 491 kts 231°
2026-04-29 04:58 39.52442 -108.80181 36001 ft 491 kts 231°
2026-04-29 04:58 39.48131 -108.87039 36003 ft 491 kts 231°
2026-04-29 04:59 39.43819 -108.93883 36001 ft 491 kts 231°
2026-04-29 04:59 39.39502 -109.00721 36002 ft 491 kts 231°
2026-04-29 05:00 39.35178 -109.07554 36000 ft 491 kts 231°
2026-04-29 05:00 39.30853 -109.14375 36001 ft 490 kts 231°
2026-04-29 05:01 39.26556 -109.21138 36000 ft 490 kts 230°
2026-04-29 05:01 39.22218 -109.27950 36000 ft 490 kts 230°
2026-04-29 05:02 39.17874 -109.34757 36001 ft 490 kts 230°
2026-04-29 05:02 39.13533 -109.41545 36000 ft 490 kts 230°
2026-04-29 05:03 39.09213 -109.48284 36000 ft 490 kts 230°
2026-04-29 05:03 39.04866 -109.55053 36000 ft 490 kts 230°
2026-04-29 05:04 39.00517 -109.61810 36001 ft 490 kts 230°
2026-04-29 05:04 38.96162 -109.68562 35999 ft 490 kts 230°
2026-04-29 05:05 38.91802 -109.75307 36003 ft 490 kts 230°
2026-04-29 05:05 38.87440 -109.82040 35996 ft 490 kts 230°
2026-04-29 05:06 38.83075 -109.88766 36001 ft 490 kts 230°
2026-04-29 05:06 38.78707 -109.95481 36000 ft 490 kts 230°
2026-04-29 05:07 38.74334 -110.02188 35999 ft 490 kts 230°
2026-04-29 05:07 38.69957 -110.08889 36001 ft 490 kts 230°
2026-04-29 05:08 38.65606 -110.15536 36001 ft 490 kts 230°
2026-04-29 05:08 38.61225 -110.22215 35998 ft 490 kts 230°
2026-04-29 05:09 38.56836 -110.28891 36004 ft 490 kts 230°
2026-04-29 05:09 38.52441 -110.35564 36003 ft 490 kts 230°
2026-04-29 05:10 38.48049 -110.42217 36003 ft 490 kts 230°
2026-04-29 05:10 38.43654 -110.48862 36002 ft 490 kts 230°
2026-04-29 05:11 38.39248 -110.55510 36001 ft 490 kts 230°
2026-04-29 05:11 38.34874 -110.62094 35998 ft 490 kts 230°
2026-04-29 05:12 38.30466 -110.68718 35997 ft 490 kts 230°
2026-04-29 05:12 38.26177 -110.75149 36000 ft 490 kts 230°